Time,TemperatureF,DewpointF,PressureIn,WindDirection,WindDirectionDegrees,WindSpeedMPH,WindSpeedGustMPH,Humidity,HourlyPrecipIn,Conditions,Clouds,dailyrainin,SoftwareType,DateUTC
2013-05-24 00:01:00,55.8,50.9,29.70,NE,45,3.8,5.1,84,0.00,,,0.00,WUHU216HW,2013-05-24 06:01:00,
2013-05-24 00:04:00,55.8,51.3,29.69,East,90,2.5,6.0,85,0.00,,,0.00,WUHU216HW,2013-05-24 06:04:00,
2013-05-24 00:05:00,55.8,51.3,29.69,ENE,68,4.7,6.0,85,0.00,,,0.00,WUHU216HW,2013-05-24 06:05:00,
2013-05-24 00:06:00,55.8,50.9,29.69,East,90,0.4,6.0,84,0.00,,,0.00,WUHU216HW,2013-05-24 06:06:00,
2013-05-24 00:09:00,55.6,50.8,29.68,NNE,23,2.7,6.0,84,0.00,,,0.00,WUHU216HW,2013-05-24 06:09:00,
2013-05-24 00:10:00,55.6,50.8,29.68,NE,45,2.2,6.0,84,0.00,,,0.00,WUHU216HW,2013-05-24 06:10:00,
2013-05-24 00:11:00,55.6,51.1,29.68,ESE,113,1.1,6.0,85,0.00,,,0.00,WUHU216HW,2013-05-24 06:11:00,
2013-05-24 00:15:00,55.6,50.8,29.68,ENE,68,1.1,2.7,84,0.00,,,0.00,WUHU216HW,2013-05-24 06:15:00,
2013-05-24 00:16:00,55.6,50.8,29.68,ENE,68,1.1,2.7,84,0.00,,,0.00,WUHU216HW,2013-05-24 06:16:00,
2013-05-24 00:17:00,55.6,50.8,29.67,NNE,23,1.8,2.7,84,0.00,,,0.00,WUHU216HW,2013-05-24 06:17:00,
2013-05-24 00:20:00,55.6,51.1,29.67,NE,45,2.7,2.7,85,0.00,,,0.00,WUHU216HW,2013-05-24 06:20:00,
2013-05-24 00:21:00,55.6,51.1,29.67,ENE,68,3.6,3.6,85,0.00,,,0.00,WUHU216HW,2013-05-24 06:21:00,
2013-05-24 00:23:00,55.6,51.1,29.67,NE,45,3.4,3.6,85,0.00,,,0.00,WUHU216HW,2013-05-24 06:23:00,
2013-05-24 00:25:00,55.6,50.8,29.67,NE,45,0.0,3.6,84,0.00,,,0.00,WUHU216HW,2013-05-24 06:25:00,
2013-05-24 00:26:00,55.4,50.6,29.67,ENE,68,1.1,3.6,84,0.00,,,0.00,WUHU216HW,2013-05-24 06:26:00,
2013-05-24 00:28:00,55.6,51.1,29.67,NE,45,2.2,3.6,85,0.00,,,0.00,WUHU216HW,2013-05-24 06:28:00,
2013-05-24 00:30:00,55.4,50.9,29.67,NE,45,2.2,3.6,85,0.00,,,0.00,WUHU216HW,2013-05-24 06:30:00,
2013-05-24 00:31:00,55.4,50.9,29.67,ENE,68,4.7,4.7,85,0.00,,,0.00,WUHU216HW,2013-05-24 06:31:00,
2013-05-24 00:33:00,55.4,50.9,29.67,NE,45,3.6,4.7,85,0.00,,,0.00,WUHU216HW,2013-05-24 06:33:00,
2013-05-24 00:35:00,55.4,50.9,29.67,NE,45,5.1,5.1,85,0.00,,,0.00,WUHU216HW,2013-05-24 06:35:00,
2013-05-24 00:36:00,55.4,50.9,29.67,NE,45,5.1,5.1,85,0.00,,,0.00,WUHU216HW,2013-05-24 06:36:00,
2013-05-24 00:37:00,55.4,50.9,29.66,ENE,68,5.6,5.6,85,0.00,,,0.00,WUHU216HW,2013-05-24 06:37:00,
2013-05-24 00:38:00,55.4,50.9,29.66,WSW,248,2.2,5.6,85,0.00,,,0.00,WUHU216HW,2013-05-24 06:38:00,
2013-05-24 00:40:00,55.4,50.9,29.66,East,90,4.3,5.6,85,0.00,,,0.00,WUHU216HW,2013-05-24 06:40:00,
2013-05-24 00:41:00,55.4,50.9,29.66,East,90,4.3,5.6,85,0.00,,,0.00,WUHU216HW,2013-05-24 06:41:00,
2013-05-24 00:42:00,55.4,51.3,29.66,East,90,3.4,5.6,86,0.00,,,0.00,WUHU216HW,2013-05-24 06:42:00,
2013-05-24 00:43:00,55.3,51.1,29.65,East,90,4.3,5.6,86,0.00,,,0.00,WUHU216HW,2013-05-24 06:43:00,
2013-05-24 00:45:00,55.3,51.1,29.65,ENE,68,7.4,8.9,86,0.00,,,0.00,WUHU216HW,2013-05-24 06:45:00,
2013-05-24 00:46:00,55.3,51.1,29.65,ENE,68,7.4,8.9,86,0.00,,,0.00,WUHU216HW,2013-05-24 06:46:00,
2013-05-24 00:47:00,55.3,51.1,29.65,ENE,68,7.4,8.9,86,0.00,,,0.00,WUHU216HW,2013-05-24 06:47:00,
2013-05-24 00:48:00,55.3,50.8,29.65,SW,225,3.8,8.9,85,0.00,,,0.00,WUHU216HW,2013-05-24 06:48:00,
2013-05-24 00:50:00,55.3,50.8,29.66,NNE,23,1.1,8.9,85,0.00,,,0.00,WUHU216HW,2013-05-24 06:50:00,
2013-05-24 00:52:00,55.3,50.8,29.66,West,270,0.4,8.9,85,0.00,,,0.00,WUHU216HW,2013-05-24 06:52:00,
2013-05-24 00:54:00,55.3,50.8,29.65,East,90,0.4,8.9,85,0.00,,,0.00,WUHU216HW,2013-05-24 06:54:00,
2013-05-24 00:55:00,55.3,50.8,29.65,SE,135,1.8,7.4,85,0.00,,,0.00,WUHU216HW,2013-05-24 06:55:00,
2013-05-24 00:57:00,55.3,50.8,29.65,SSE,158,0.7,5.1,85,0.00,,,0.00,WUHU216HW,2013-05-24 06:57:00,
2013-05-24 00:58:00,55.3,50.8,29.64,ESE,113,0.9,4.0,85,0.00,,,0.00,WUHU216HW,2013-05-24 06:58:00,
2013-05-24 00:59:00,55.3,50.8,29.64,NE,45,6.5,6.5,85,0.00,,,0.00,WUHU216HW,2013-05-24 06:59:00,
2013-05-24 01:01:00,55.1,51.0,29.63,NNE,23,4.7,6.5,86,0.00,,,0.00,WUHU216HW,2013-05-24 07:01:00,
2013-05-24 01:02:00,55.1,50.6,29.63,SE,135,6.3,6.5,85,0.00,,,0.00,WUHU216HW,2013-05-24 07:02:00,
2013-05-24 01:03:00,55.1,51.0,29.63,NNE,23,4.7,6.5,86,0.00,,,0.00,WUHU216HW,2013-05-24 07:03:00,
2013-05-24 01:04:00,54.9,50.8,29.63,ENE,68,6.7,6.7,86,0.00,,,0.00,WUHU216HW,2013-05-24 07:04:00,
2013-05-24 01:06:00,54.9,50.8,29.62,ESE,113,4.0,6.7,86,0.00,,,0.00,WUHU216HW,2013-05-24 07:06:00,
2013-05-24 01:08:00,54.9,50.8,29.63,NE,45,3.4,6.7,86,0.00,,,0.00,WUHU216HW,2013-05-24 07:08:00,
2013-05-24 01:09:00,54.7,50.6,29.63,East,90,2.7,6.7,86,0.00,,,0.00,WUHU216HW,2013-05-24 07:09:00,
2013-05-24 01:12:00,54.7,50.6,29.63,NNE,23,2.0,6.7,86,0.00,,,0.00,WUHU216HW,2013-05-24 07:12:00,
2013-05-24 01:13:00,54.7,50.6,29.64,East,90,4.0,6.7,86,0.00,,,0.00,WUHU216HW,2013-05-24 07:13:00,
2013-05-24 01:14:00,54.7,50.6,29.64,NE,45,0.2,5.4,86,0.00,,,0.00,WUHU216HW,2013-05-24 07:14:00,
2013-05-24 01:17:00,54.5,50.1,29.65,SE,135,0.2,5.4,85,0.00,,,0.00,WUHU216HW,2013-05-24 07:17:00,
2013-05-24 01:18:00,54.5,50.1,29.65,SE,135,0.2,5.4,85,0.00,,,0.00,WUHU216HW,2013-05-24 07:18:00,
2013-05-24 01:19:00,54.5,50.1,29.65,East,90,3.1,4.0,85,0.00,,,0.00,WUHU216HW,2013-05-24 07:19:00,
2013-05-24 01:20:00,54.5,50.1,29.65,SSE,158,1.1,4.0,85,0.00,,,0.00,WUHU216HW,2013-05-24 07:20:00,
2013-05-24 01:22:00,54.5,50.1,29.65,SSE,158,0.4,3.1,85,0.00,,,0.00,WUHU216HW,2013-05-24 07:22:00,
2013-05-24 01:23:00,54.5,50.1,29.65,SSE,158,0.4,3.1,85,0.00,,,0.00,WUHU216HW,2013-05-24 07:23:00,
2013-05-24 01:24:00,54.5,50.1,29.65,SSE,158,1.6,3.1,85,0.00,,,0.00,WUHU216HW,2013-05-24 07:24:00,
2013-05-24 01:25:00,54.4,50.0,29.65,ESE,113,0.4,3.1,85,0.00,,,0.00,WUHU216HW,2013-05-24 07:25:00,
2013-05-24 01:28:00,54.4,50.0,29.66,SSE,158,1.1,2.2,85,0.00,,,0.00,WUHU216HW,2013-05-24 07:28:00,
2013-05-24 01:29:00,54.4,50.0,29.66,SSE,158,1.1,2.2,85,0.00,,,0.00,WUHU216HW,2013-05-24 07:29:00,
2013-05-24 01:30:00,54.5,50.1,29.66,ESE,113,0.4,2.2,85,0.00,,,0.00,WUHU216HW,2013-05-24 07:30:00,
2013-05-24 01:33:00,54.4,50.0,29.67,NNW,338,1.1,2.0,85,0.00,,,0.00,WUHU216HW,2013-05-24 07:33:00,
2013-05-24 01:34:00,54.4,50.0,29.67,NNW,338,1.1,2.0,85,0.00,,,0.00,WUHU216HW,2013-05-24 07:34:00,
2013-05-24 01:35:00,54.5,50.1,29.67,WNW,293,3.1,3.1,85,0.00,,,0.00,WUHU216HW,2013-05-24 07:35:00,
2013-05-24 01:38:00,54.5,49.8,29.68,NNW,338,1.1,3.1,84,0.00,,,0.00,WUHU216HW,2013-05-24 07:38:00,
2013-05-24 01:39:00,54.5,49.8,29.68,NW,315,1.1,3.1,84,0.00,,,0.00,WUHU216HW,2013-05-24 07:39:00,
2013-05-24 01:41:00,54.7,50.0,29.68,NW,315,1.3,3.1,84,0.00,,,0.00,WUHU216HW,2013-05-24 07:41:00,
2013-05-24 01:43:00,54.7,50.0,29.67,NNE,23,0.0,3.1,84,0.00,,,0.00,WUHU216HW,2013-05-24 07:43:00,
2013-05-24 01:44:00,54.7,50.0,29.67,NNW,338,1.1,3.1,84,0.00,,,0.00,WUHU216HW,2013-05-24 07:44:00,
2013-05-24 01:46:00,54.7,50.0,29.67,WNW,293,2.7,2.9,84,0.00,,,0.00,WUHU216HW,2013-05-24 07:46:00,
2013-05-24 01:48:00,54.9,50.1,29.68,NW,315,4.7,4.7,84,0.00,,,0.00,WUHU216HW,2013-05-24 07:48:00,
2013-05-24 01:49:00,54.9,50.1,29.68,West,270,1.8,4.7,84,0.00,,,0.00,WUHU216HW,2013-05-24 07:49:00,
2013-05-24 01:51:00,54.9,50.1,29.68,NW,315,3.4,4.7,84,0.00,,,0.00,WUHU216HW,2013-05-24 07:51:00,
2013-05-24 01:53:00,55.1,50.3,29.70,West,270,4.7,4.7,84,0.00,,,0.00,WUHU216HW,2013-05-24 07:53:00,
2013-05-24 01:54:00,55.1,50.3,29.71,West,270,2.5,4.7,84,0.00,,,0.00,WUHU216HW,2013-05-24 07:54:00,
2013-05-24 01:55:00,55.1,50.3,29.71,West,270,2.5,4.7,84,0.00,,,0.00,WUHU216HW,2013-05-24 07:55:00,
2013-05-24 01:56:00,55.1,50.3,29.71,WNW,293,3.4,4.7,84,0.00,,,0.00,WUHU216HW,2013-05-24 07:56:00,
2013-05-24 01:58:00,55.1,50.3,29.71,NNW,338,3.1,4.7,84,0.00,,,0.00,WUHU216HW,2013-05-24 07:58:00,
2013-05-24 01:59:00,55.1,50.3,29.71,NW,315,1.6,4.7,84,0.00,,,0.00,WUHU216HW,2013-05-24 07:59:00,
2013-05-24 02:00:00,55.1,50.3,29.71,NW,315,1.8,4.7,84,0.00,,,0.00,WUHU216HW,2013-05-24 08:00:00,
2013-05-24 02:01:00,55.1,50.3,29.70,NW,315,3.4,4.7,84,0.00,,,0.00,WUHU216HW,2013-05-24 08:01:00,
2013-05-24 02:03:00,55.1,50.3,29.70,SSE,158,1.1,3.4,84,0.00,,,0.00,WUHU216HW,2013-05-24 08:03:00,
2013-05-24 02:04:00,55.1,50.3,29.70,West,270,1.1,3.4,84,0.00,,,0.00,WUHU216HW,2013-05-24 08:04:00,
2013-05-24 02:05:00,55.3,50.5,29.69,WNW,293,0.2,3.4,84,0.00,,,0.00,WUHU216HW,2013-05-24 08:05:00,
2013-05-24 02:06:00,55.3,50.5,29.69,WNW,293,0.2,3.4,84,0.00,,,0.00,WUHU216HW,2013-05-24 08:06:00,
2013-05-24 02:09:00,55.4,50.6,29.67,North,0,0.4,3.4,84,0.00,,,0.00,WUHU216HW,2013-05-24 08:09:00,
2013-05-24 02:10:00,55.4,50.6,29.67,NNE,23,1.6,3.4,84,0.00,,,0.00,WUHU216HW,2013-05-24 08:10:00,
2013-05-24 02:11:00,55.4,50.6,29.67,NNE,23,1.6,1.8,84,0.00,,,0.00,WUHU216HW,2013-05-24 08:11:00,
2013-05-24 02:14:00,55.4,50.6,29.66,North,0,1.1,1.8,84,0.00,,,0.00,WUHU216HW,2013-05-24 08:14:00,
2013-05-24 02:15:00,55.4,50.6,29.66,North,0,1.1,1.8,84,0.00,,,0.00,WUHU216HW,2013-05-24 08:15:00,
2013-05-24 02:16:00,55.4,50.6,29.66,NNW,338,0.9,1.8,84,0.00,,,0.00,WUHU216HW,2013-05-24 08:16:00,
2013-05-24 02:19:00,55.4,50.6,29.67,WNW,293,1.8,1.8,84,0.00,,,0.00,WUHU216HW,2013-05-24 08:19:00,
2013-05-24 02:20:00,55.4,50.6,29.67,NNW,338,3.4,3.4,84,0.00,,,0.00,WUHU216HW,2013-05-24 08:20:00,
2013-05-24 02:21:00,55.4,50.6,29.67,NNW,338,3.4,3.4,84,0.00,,,0.00,WUHU216HW,2013-05-24 08:21:00,
2013-05-24 02:24:00,55.4,50.6,29.68,North,0,0.4,3.4,84,0.00,,,0.00,WUHU216HW,2013-05-24 08:24:00,
2013-05-24 02:25:00,55.4,50.6,29.68,WNW,293,3.6,3.6,84,0.00,,,0.00,WUHU216HW,2013-05-24 08:25:00,
2013-05-24 02:26:00,55.4,50.6,29.68,WNW,293,3.6,3.6,84,0.00,,,0.00,WUHU216HW,2013-05-24 08:26:00,
2013-05-24 02:29:00,55.3,50.5,29.68,West,270,0.0,3.6,84,0.00,,,0.00,WUHU216HW,2013-05-24 08:29:00,
2013-05-24 02:30:00,55.3,50.5,29.68,WSW,248,0.0,3.6,84,0.00,,,0.00,WUHU216HW,2013-05-24 08:30:00,
2013-05-24 02:31:00,55.3,50.5,29.68,WSW,248,0.0,3.6,84,0.00,,,0.00,WUHU216HW,2013-05-24 08:31:00,
2013-05-24 02:34:00,55.3,50.5,29.68,South,180,1.6,3.6,84,0.00,,,0.00,WUHU216HW,2013-05-24 08:34:00,
2013-05-24 02:36:00,55.1,50.3,29.67,SSW,203,1.1,2.2,84,0.00,,,0.00,WUHU216HW,2013-05-24 08:36:00,
2013-05-24 02:37:00,55.1,50.3,29.67,SE,135,0.2,2.2,84,0.00,,,0.00,WUHU216HW,2013-05-24 08:37:00,
2013-05-24 02:40:00,55.1,50.3,29.66,SE,135,0.7,2.2,84,0.00,,,0.00,WUHU216HW,2013-05-24 08:40:00,
2013-05-24 02:41:00,55.1,50.3,29.66,SE,135,0.7,2.2,84,0.00,,,0.00,WUHU216HW,2013-05-24 08:41:00,
2013-05-24 02:42:00,55.1,50.6,29.65,SE,135,0.7,2.2,85,0.00,,,0.00,WUHU216HW,2013-05-24 08:42:00,
2013-05-24 02:45:00,54.9,50.4,29.64,SE,135,0.7,3.4,85,0.00,,,0.00,WUHU216HW,2013-05-24 08:45:00,
2013-05-24 02:46:00,54.9,50.4,29.64,SE,135,0.7,3.4,85,0.00,,,0.00,WUHU216HW,2013-05-24 08:46:00,
2013-05-24 02:47:00,54.7,50.2,29.64,NW,315,0.4,3.4,85,0.00,,,0.00,WUHU216HW,2013-05-24 08:47:00,
2013-05-24 02:50:00,54.7,50.2,29.64,ESE,113,0.4,3.4,85,0.00,,,0.00,WUHU216HW,2013-05-24 08:50:00,
2013-05-24 02:51:00,54.7,50.2,29.64,ESE,113,0.4,3.4,85,0.00,,,0.00,WUHU216HW,2013-05-24 08:51:00,
2013-05-24 02:52:00,54.7,50.2,29.64,SE,135,1.8,3.4,85,0.00,,,0.00,WUHU216HW,2013-05-24 08:52:00,
2013-05-24 02:56:00,54.5,50.4,29.65,SSE,158,0.2,1.8,86,0.00,,,0.00,WUHU216HW,2013-05-24 08:56:00,
2013-05-24 02:57:00,54.7,50.6,29.65,NNE,23,0.4,1.8,86,0.00,,,0.00,WUHU216HW,2013-05-24 08:57:00,
2013-05-24 03:01:00,54.5,50.4,29.66,WNW,293,1.3,1.8,86,0.00,,,0.00,WUHU216HW,2013-05-24 09:01:00,
2013-05-24 03:02:00,54.5,50.4,29.66,NNW,338,0.9,1.6,86,0.00,,,0.00,WUHU216HW,2013-05-24 09:02:00,
2013-05-24 03:06:00,54.7,50.6,29.66,NNW,338,0.0,1.3,86,0.00,,,0.00,WUHU216HW,2013-05-24 09:06:00,
2013-05-24 03:07:00,54.7,50.6,29.66,NNW,338,0.0,1.3,86,0.00,,,0.00,WUHU216HW,2013-05-24 09:07:00,
2013-05-24 03:11:00,54.7,50.6,29.67,WNW,293,0.7,0.9,86,0.00,,,0.00,WUHU216HW,2013-05-24 09:11:00,
2013-05-24 03:12:00,54.7,50.2,29.68,West,270,0.7,0.9,85,0.00,,,0.00,WUHU216HW,2013-05-24 09:12:00,
2013-05-24 03:13:00,54.7,50.6,29.68,NNW,338,0.9,0.9,86,0.00,,,0.00,WUHU216HW,2013-05-24 09:13:00,
2013-05-24 03:16:00,54.7,50.6,29.69,NW,315,1.6,1.8,86,0.00,,,0.00,WUHU216HW,2013-05-24 09:16:00,
2013-05-24 03:17:00,54.7,50.6,29.68,NW,315,2.5,2.5,86,0.00,,,0.00,WUHU216HW,2013-05-24 09:17:00,
2013-05-24 03:18:00,54.7,50.6,29.68,NW,315,0.4,2.5,86,0.00,,,0.00,WUHU216HW,2013-05-24 09:18:00,
2013-05-24 03:21:00,54.7,50.6,29.68,North,0,1.1,3.1,86,0.00,,,0.00,WUHU216HW,2013-05-24 09:21:00,
2013-05-24 03:22:00,54.7,50.2,29.68,NW,315,2.7,3.1,85,0.00,,,0.00,WUHU216HW,2013-05-24 09:22:00,
2013-05-24 03:23:00,54.7,50.2,29.68,NW,315,2.7,3.1,85,0.00,,,0.00,WUHU216HW,2013-05-24 09:23:00,
2013-05-24 03:26:00,54.5,50.1,29.70,WSW,248,2.0,4.7,85,0.00,,,0.00,WUHU216HW,2013-05-24 09:26:00,
2013-05-24 03:28:00,54.5,50.1,29.69,NW,315,2.2,4.7,85,0.00,,,0.00,WUHU216HW,2013-05-24 09:28:00,
2013-05-24 03:29:00,54.5,50.1,29.70,WNW,293,2.5,4.7,85,0.00,,,0.00,WUHU216HW,2013-05-24 09:29:00,
2013-05-24 03:31:00,54.5,50.1,29.70,WNW,293,2.2,4.7,85,0.00,,,0.00,WUHU216HW,2013-05-24 09:31:00,
2013-05-24 03:32:00,54.5,50.1,29.70,WNW,293,2.2,4.7,85,0.00,,,0.00,WUHU216HW,2013-05-24 09:32:00,
2013-05-24 03:33:00,54.4,50.0,29.70,NW,315,4.9,4.9,85,0.00,,,0.00,WUHU216HW,2013-05-24 09:33:00,
2013-05-24 03:34:00,54.4,50.0,29.70,WNW,293,2.7,4.9,85,0.00,,,0.00,WUHU216HW,2013-05-24 09:34:00,
2013-05-24 03:36:00,54.4,50.0,29.70,WNW,293,2.7,4.9,85,0.00,,,0.00,WUHU216HW,2013-05-24 09:36:00,
2013-05-24 03:37:00,54.4,50.0,29.70,WNW,293,2.7,4.9,85,0.00,,,0.00,WUHU216HW,2013-05-24 09:37:00,
2013-05-24 03:38:00,54.4,50.0,29.70,WSW,248,2.0,4.9,85,0.00,,,0.00,WUHU216HW,2013-05-24 09:38:00,
2013-05-24 03:39:00,54.4,50.0,29.70,WSW,248,2.0,4.9,85,0.00,,,0.00,WUHU216HW,2013-05-24 09:39:00,
2013-05-24 03:42:00,54.4,50.0,29.71,South,180,3.4,4.0,85,0.00,,,0.00,WUHU216HW,2013-05-24 09:42:00,
2013-05-24 03:44:00,54.4,50.0,29.71,WNW,293,1.8,4.0,85,0.00,,,0.00,WUHU216HW,2013-05-24 09:44:00,
2013-05-24 03:47:00,54.4,50.0,29.70,South,180,1.8,4.0,85,0.00,,,0.00,WUHU216HW,2013-05-24 09:47:00,
2013-05-24 03:49:00,54.5,50.1,29.70,North,0,1.3,4.0,85,0.00,,,0.00,WUHU216HW,2013-05-24 09:49:00,
2013-05-24 03:52:00,54.5,50.1,29.70,North,0,1.6,2.2,85,0.00,,,0.00,WUHU216HW,2013-05-24 09:52:00,
2013-05-24 03:54:00,54.5,50.1,29.70,WSW,248,1.1,2.2,85,0.00,,,0.00,WUHU216HW,2013-05-24 09:54:00,
2013-05-24 03:57:00,54.5,50.1,29.71,NW,315,2.2,3.4,85,0.00,,,0.00,WUHU216HW,2013-05-24 09:57:00,
2013-05-24 03:58:00,54.5,50.1,29.71,NNW,338,1.8,3.4,85,0.00,,,0.00,WUHU216HW,2013-05-24 09:58:00,
2013-05-24 03:59:00,54.5,50.1,29.71,WNW,293,1.6,3.4,85,0.00,,,0.00,WUHU216HW,2013-05-24 09:59:00,
2013-05-24 04:00:00,54.5,50.1,29.70,NNW,338,1.8,3.4,85,0.00,,,0.00,WUHU216HW,2013-05-24 10:00:00,
2013-05-24 04:02:00,54.5,50.1,29.70,North,0,0.9,3.4,85,0.00,,,0.00,WUHU216HW,2013-05-24 10:02:00,
2013-05-24 04:03:00,54.5,50.1,29.70,North,0,0.4,3.4,85,0.00,,,0.00,WUHU216HW,2013-05-24 10:03:00,
2013-05-24 04:04:00,54.5,50.1,29.70,North,0,1.8,2.2,85,0.00,,,0.00,WUHU216HW,2013-05-24 10:04:00,
2013-05-24 04:05:00,54.5,50.1,29.70,West,270,3.4,3.4,85,0.00,,,0.00,WUHU216HW,2013-05-24 10:05:00,
2013-05-24 04:08:00,54.5,50.1,29.70,North,0,1.8,3.4,85,0.00,,,0.00,WUHU216HW,2013-05-24 10:08:00,
2013-05-24 04:09:00,54.5,50.1,29.70,NNW,338,2.5,3.4,85,0.00,,,0.00,WUHU216HW,2013-05-24 10:09:00,
2013-05-24 04:10:00,54.7,50.0,29.70,West,270,1.3,3.4,84,0.00,,,0.00,WUHU216HW,2013-05-24 10:10:00,
2013-05-24 04:11:00,54.7,50.0,29.70,West,270,1.3,3.4,84,0.00,,,0.00,WUHU216HW,2013-05-24 10:11:00,
2013-05-24 04:13:00,54.7,50.0,29.71,WNW,293,2.9,3.4,84,0.00,,,0.00,WUHU216HW,2013-05-24 10:13:00,
2013-05-24 04:14:00,54.7,50.0,29.71,SSW,203,1.6,3.4,84,0.00,,,0.00,WUHU216HW,2013-05-24 10:14:00,
2013-05-24 04:15:00,54.7,49.6,29.71,NNE,23,2.5,2.9,83,0.00,,,0.00,WUHU216HW,2013-05-24 10:15:00,
2013-05-24 04:16:00,54.7,49.6,29.72,SW,225,3.6,3.6,83,0.00,,,0.00,WUHU216HW,2013-05-24 10:16:00,
2013-05-24 04:18:00,54.5,49.1,29.72,WSW,248,3.4,3.6,82,0.00,,,0.00,WUHU216HW,2013-05-24 10:18:00,
2013-05-24 04:19:00,54.5,49.1,29.72,WNW,293,2.5,3.6,82,0.00,,,0.00,WUHU216HW,2013-05-24 10:19:00,
2013-05-24 04:20:00,54.5,49.1,29.72,WNW,293,2.0,3.6,82,0.00,,,0.00,WUHU216HW,2013-05-24 10:20:00,
2013-05-24 04:22:00,54.4,49.0,29.72,WNW,293,2.2,3.6,82,0.00,,,0.00,WUHU216HW,2013-05-24 10:22:00,
2013-05-24 04:23:00,54.4,49.0,29.72,West,270,4.0,4.0,82,0.00,,,0.00,WUHU216HW,2013-05-24 10:23:00,
2013-05-24 04:24:00,54.4,49.0,29.72,South,180,2.9,4.0,82,0.00,,,0.00,WUHU216HW,2013-05-24 10:24:00,
2013-05-24 04:25:00,54.4,48.7,29.73,NW,315,2.2,4.0,81,0.00,,,0.00,WUHU216HW,2013-05-24 10:25:00,
2013-05-24 04:27:00,54.2,48.5,29.73,West,270,2.0,4.0,81,0.00,,,0.00,WUHU216HW,2013-05-24 10:27:00,
2013-05-24 04:28:00,54.2,48.5,29.73,WSW,248,5.8,5.8,81,0.00,,,0.00,WUHU216HW,2013-05-24 10:28:00,
2013-05-24 04:29:00,54.0,48.1,29.73,NW,315,8.9,8.9,80,0.00,,,0.00,WUHU216HW,2013-05-24 10:29:00,
2013-05-24 04:30:00,54.0,48.1,29.73,WNW,293,7.6,8.9,80,0.00,,,0.00,WUHU216HW,2013-05-24 10:30:00,
2013-05-24 04:31:00,54.0,48.1,29.73,WNW,293,7.6,8.9,80,0.00,,,0.00,WUHU216HW,2013-05-24 10:31:00,
2013-05-24 04:32:00,54.0,48.1,29.73,North,0,3.1,8.9,80,0.00,,,0.00,WUHU216HW,2013-05-24 10:32:00,
2013-05-24 04:33:00,53.8,47.9,29.73,NW,315,5.4,8.9,80,0.00,,,0.00,WUHU216HW,2013-05-24 10:33:00,
2013-05-24 04:35:00,53.8,47.5,29.73,WNW,293,2.2,8.9,79,0.00,,,0.00,WUHU216HW,2013-05-24 10:35:00,
2013-05-24 04:36:00,53.8,47.5,29.73,SW,225,1.8,8.9,79,0.00,,,0.00,WUHU216HW,2013-05-24 10:36:00,
2013-05-24 04:37:00,53.6,47.3,29.73,NNW,338,2.9,8.9,79,0.00,,,0.00,WUHU216HW,2013-05-24 10:37:00,
2013-05-24 04:38:00,53.6,47.3,29.74,West,270,1.3,8.9,79,0.00,,,0.00,WUHU216HW,2013-05-24 10:38:00,
2013-05-24 04:40:00,53.6,47.3,29.74,WNW,293,4.5,7.6,79,0.00,,,0.00,WUHU216HW,2013-05-24 10:40:00,
2013-05-24 04:41:00,53.6,47.3,29.74,NW,315,2.0,5.4,79,0.00,,,0.00,WUHU216HW,2013-05-24 10:41:00,
2013-05-24 04:42:00,53.6,47.3,29.74,NW,315,2.0,5.4,79,0.00,,,0.00,WUHU216HW,2013-05-24 10:42:00,
2013-05-24 04:43:00,53.5,47.2,29.74,WNW,293,0.4,5.4,79,0.00,,,0.00,WUHU216HW,2013-05-24 10:43:00,
2013-05-24 04:45:00,53.5,47.2,29.74,South,180,0.9,4.5,79,0.00,,,0.00,WUHU216HW,2013-05-24 10:45:00,
2013-05-24 04:46:00,53.5,47.2,29.73,WNW,293,2.2,4.5,79,0.00,,,0.00,WUHU216HW,2013-05-24 10:46:00,
2013-05-24 04:47:00,53.5,47.2,29.73,WNW,293,2.2,4.5,79,0.00,,,0.00,WUHU216HW,2013-05-24 10:47:00,
2013-05-24 04:48:00,53.3,47.0,29.73,NW,315,0.0,4.5,79,0.00,,,0.00,WUHU216HW,2013-05-24 10:48:00,
2013-05-24 04:49:00,53.3,47.0,29.74,WNW,293,2.2,2.5,79,0.00,,,0.00,WUHU216HW,2013-05-24 10:49:00,
2013-05-24 04:50:00,53.3,47.0,29.74,WNW,293,2.2,2.5,79,0.00,,,0.00,WUHU216HW,2013-05-24 10:50:00,
2013-05-24 04:51:00,53.3,47.0,29.75,North,0,1.1,2.2,79,0.00,,,0.00,WUHU216HW,2013-05-24 10:51:00,
2013-05-24 04:52:00,53.3,47.0,29.75,North,0,1.1,2.2,79,0.00,,,0.00,WUHU216HW,2013-05-24 10:52:00,
2013-05-24 04:53:00,53.3,46.6,29.75,SSE,158,0.9,2.2,78,0.00,,,0.00,WUHU216HW,2013-05-24 10:53:00,
2013-05-24 04:54:00,53.3,47.0,29.75,NNW,338,2.2,2.2,79,0.00,,,0.00,WUHU216HW,2013-05-24 10:54:00,
2013-05-24 04:55:00,53.3,47.0,29.75,NNW,338,2.2,2.2,79,0.00,,,0.00,WUHU216HW,2013-05-24 10:55:00,
2013-05-24 04:56:00,53.1,46.4,29.75,North,0,0.2,2.2,78,0.00,,,0.00,WUHU216HW,2013-05-24 10:56:00,
2013-05-24 04:58:00,53.1,46.4,29.76,NW,315,1.6,2.2,78,0.00,,,0.00,WUHU216HW,2013-05-24 10:58:00,
2013-05-24 04:59:00,53.1,46.4,29.75,NNW,338,0.9,2.2,78,0.00,,,0.00,WUHU216HW,2013-05-24 10:59:00,
2013-05-24 05:01:00,53.1,46.4,29.75,NE,45,2.9,2.9,78,0.00,,,0.00,WUHU216HW,2013-05-24 11:01:00,
2013-05-24 05:03:00,53.1,46.4,29.75,NNW,338,0.4,2.9,78,0.00,,,0.00,WUHU216HW,2013-05-24 11:03:00,
2013-05-24 05:05:00,52.9,46.3,29.75,South,180,2.0,2.9,78,0.00,,,0.00,WUHU216HW,2013-05-24 11:05:00,
2013-05-24 05:06:00,52.9,46.3,29.75,South,180,0.9,2.9,78,0.00,,,0.00,WUHU216HW,2013-05-24 11:06:00,
2013-05-24 05:07:00,52.9,46.3,29.75,South,180,0.9,2.9,78,0.00,,,0.00,WUHU216HW,2013-05-24 11:07:00,
2013-05-24 05:08:00,52.9,45.9,29.75,North,0,1.8,5.8,77,0.00,,,0.00,WUHU216HW,2013-05-24 11:08:00,
2013-05-24 05:10:00,52.9,46.3,29.75,NNW,338,1.8,5.8,78,0.00,,,0.00,WUHU216HW,2013-05-24 11:10:00,
2013-05-24 05:11:00,52.9,46.3,29.75,NNE,23,2.5,5.8,78,0.00,,,0.00,WUHU216HW,2013-05-24 11:11:00,
2013-05-24 05:12:00,52.9,46.3,29.75,NNE,23,2.5,5.8,78,0.00,,,0.00,WUHU216HW,2013-05-24 11:12:00,
2013-05-24 05:13:00,52.9,45.9,29.75,North,0,2.0,5.8,77,0.00,,,0.00,WUHU216HW,2013-05-24 11:13:00,
2013-05-24 05:15:00,52.9,46.3,29.75,SW,225,0.2,5.8,78,0.00,,,0.00,WUHU216HW,2013-05-24 11:15:00,
2013-05-24 05:16:00,52.9,46.3,29.75,SSW,203,1.8,5.8,78,0.00,,,0.00,WUHU216HW,2013-05-24 11:16:00,
2013-05-24 05:17:00,52.9,46.3,29.75,SSW,203,1.8,3.4,78,0.00,,,0.00,WUHU216HW,2013-05-24 11:17:00,
2013-05-24 05:18:00,52.9,46.3,29.76,NNW,338,3.4,6.3,78,0.00,,,0.00,WUHU216HW,2013-05-24 11:18:00,
2013-05-24 05:19:00,52.9,46.3,29.76,NNE,23,2.5,6.3,78,0.00,,,0.00,WUHU216HW,2013-05-24 11:19:00,
2013-05-24 05:20:00,52.9,46.3,29.76,ENE,68,1.8,6.3,78,0.00,,,0.00,WUHU216HW,2013-05-24 11:20:00,
2013-05-24 05:21:00,52.9,46.3,29.76,NNE,23,1.8,6.3,78,0.00,,,0.00,WUHU216HW,2013-05-24 11:21:00,
2013-05-24 05:22:00,52.9,46.3,29.76,NW,315,1.1,6.3,78,0.00,,,0.00,WUHU216HW,2013-05-24 11:22:00,
2013-05-24 05:23:00,52.9,46.3,29.76,NNE,23,0.4,6.3,78,0.00,,,0.00,WUHU216HW,2013-05-24 11:23:00,
2013-05-24 05:24:00,52.9,46.3,29.76,NNE,23,0.0,6.3,78,0.00,,,0.00,WUHU216HW,2013-05-24 11:24:00,
2013-05-24 05:25:00,52.9,46.3,29.76,ENE,68,1.8,6.3,78,0.00,,,0.00,WUHU216HW,2013-05-24 11:25:00,
2013-05-24 05:26:00,52.9,46.3,29.76,ENE,68,1.8,6.3,78,0.00,,,0.00,WUHU216HW,2013-05-24 11:26:00,
2013-05-24 05:27:00,52.9,46.3,29.76,NNW,338,0.9,3.4,78,0.00,,,0.00,WUHU216HW,2013-05-24 11:27:00,
2013-05-24 05:29:00,52.9,46.3,29.76,ESE,113,2.0,2.5,78,0.00,,,0.00,WUHU216HW,2013-05-24 11:29:00,
2013-05-24 05:30:00,52.9,46.3,29.76,ESE,113,2.0,2.5,78,0.00,,,0.00,WUHU216HW,2013-05-24 11:30:00,
2013-05-24 05:31:00,52.7,46.1,29.76,NE,45,1.1,2.5,78,0.00,,,0.00,WUHU216HW,2013-05-24 11:31:00,
2013-05-24 05:32:00,52.7,46.1,29.76,NW,315,0.4,2.5,78,0.00,,,0.00,WUHU216HW,2013-05-24 11:32:00,
2013-05-24 05:34:00,52.7,46.1,29.76,NE,45,0.4,2.5,78,0.00,,,0.00,WUHU216HW,2013-05-24 11:34:00,
2013-05-24 05:35:00,52.7,46.1,29.76,NE,45,0.4,2.5,78,0.00,,,0.00,WUHU216HW,2013-05-24 11:35:00,
2013-05-24 05:36:00,52.7,46.4,29.76,North,0,0.4,2.5,79,0.00,,,0.00,WUHU216HW,2013-05-24 11:36:00,
2013-05-24 05:37:00,52.7,46.4,29.76,North,0,0.0,2.5,79,0.00,,,0.00,WUHU216HW,2013-05-24 11:37:00,
2013-05-24 05:39:00,52.6,46.3,29.76,North,0,0.0,2.2,79,0.00,,,0.00,WUHU216HW,2013-05-24 11:39:00,
2013-05-24 05:40:00,52.6,46.3,29.76,North,0,0.0,2.2,79,0.00,,,0.00,WUHU216HW,2013-05-24 11:40:00,
2013-05-24 05:41:00,52.6,46.3,29.76,North,0,0.0,2.2,79,0.00,,,0.00,WUHU216HW,2013-05-24 11:41:00,
2013-05-24 05:42:00,52.6,46.3,29.76,NE,45,0.0,2.2,79,0.00,,,0.00,WUHU216HW,2013-05-24 11:42:00,
2013-05-24 05:44:00,52.6,46.3,29.76,NE,45,0.4,1.8,79,0.00,,,0.00,WUHU216HW,2013-05-24 11:44:00,
2013-05-24 05:45:00,52.6,46.3,29.76,ENE,68,1.1,1.1,79,0.00,,,0.00,WUHU216HW,2013-05-24 11:45:00,
2013-05-24 05:46:00,52.6,46.3,29.76,ENE,68,1.1,1.1,79,0.00,,,0.00,WUHU216HW,2013-05-24 11:46:00,
2013-05-24 05:47:00,52.6,46.3,29.76,NE,45,1.3,1.3,79,0.00,,,0.00,WUHU216HW,2013-05-24 11:47:00,
2013-05-24 05:49:00,52.6,46.3,29.76,NE,45,1.3,1.3,79,0.00,,,0.00,WUHU216HW,2013-05-24 11:49:00,
2013-05-24 05:50:00,52.6,46.3,29.76,NE,45,1.3,1.3,79,0.00,,,0.00,WUHU216HW,2013-05-24 11:50:00,
2013-05-24 05:51:00,52.6,46.3,29.76,NE,45,1.3,1.3,79,0.00,,,0.00,WUHU216HW,2013-05-24 11:51:00,
2013-05-24 05:53:00,52.6,46.3,29.76,NE,45,1.3,1.3,79,0.00,,,0.00,WUHU216HW,2013-05-24 11:53:00,
2013-05-24 05:54:00,52.6,46.3,29.76,NE,45,1.3,1.3,79,0.00,,,0.00,WUHU216HW,2013-05-24 11:54:00,
2013-05-24 05:55:00,52.6,46.3,29.76,NE,45,1.3,1.3,79,0.00,,,0.00,WUHU216HW,2013-05-24 11:55:00,
2013-05-24 05:56:00,52.6,46.3,29.76,NE,45,1.3,1.3,79,0.00,,,0.00,WUHU216HW,2013-05-24 11:56:00,
2013-05-24 06:00:00,52.2,46.3,29.76,NNW,338,1.6,1.6,80,0.00,,,0.00,WUHU216HW,2013-05-24 12:00:00,
2013-05-24 06:01:00,52.2,46.3,29.76,NNW,338,1.6,1.6,80,0.00,,,0.00,WUHU216HW,2013-05-24 12:01:00,
2013-05-24 06:05:00,52.2,46.3,29.77,North,0,0.7,1.6,80,0.00,,,0.00,WUHU216HW,2013-05-24 12:05:00,
2013-05-24 06:06:00,52.2,46.3,29.77,North,0,1.1,1.6,80,0.00,,,0.00,WUHU216HW,2013-05-24 12:06:00,
2013-05-24 06:10:00,52.2,46.3,29.77,NW,315,0.9,1.1,80,0.00,,,0.00,WUHU216HW,2013-05-24 12:10:00,
2013-05-24 06:11:00,52.2,46.3,29.77,NW,315,0.4,1.1,80,0.00,,,0.00,WUHU216HW,2013-05-24 12:11:00,
2013-05-24 06:12:00,52.2,46.3,29.77,NW,315,0.4,1.1,80,0.00,,,0.00,WUHU216HW,2013-05-24 12:12:00,
2013-05-24 06:15:00,52.2,46.3,29.78,NNW,338,0.4,1.8,80,0.00,,,0.00,WUHU216HW,2013-05-24 12:15:00,
2013-05-24 06:17:00,52.2,46.3,29.78,NW,315,1.1,1.8,80,0.00,,,0.00,WUHU216HW,2013-05-24 12:17:00,
2013-05-24 06:20:00,52.2,46.3,29.79,NW,315,0.0,1.8,80,0.00,,,0.00,WUHU216HW,2013-05-24 12:20:00,
2013-05-24 06:22:00,52.2,46.3,29.79,WNW,293,0.0,1.8,80,0.00,,,0.00,WUHU216HW,2013-05-24 12:22:00,
2013-05-24 06:23:00,52.2,46.3,29.79,WNW,293,0.0,1.1,80,0.00,,,0.00,WUHU216HW,2013-05-24 12:23:00,
2013-05-24 06:25:00,52.2,46.3,29.79,ENE,68,0.9,1.1,80,0.00,,,0.00,WUHU216HW,2013-05-24 12:25:00,
2013-05-24 06:26:00,52.2,46.3,29.79,ENE,68,0.9,1.1,80,0.00,,,0.00,WUHU216HW,2013-05-24 12:26:00,
2013-05-24 06:28:00,52.2,46.3,29.79,NNE,23,0.0,1.8,80,0.00,,,0.00,WUHU216HW,2013-05-24 12:28:00,
2013-05-24 06:30:00,52.2,46.3,29.79,NE,45,0.7,1.8,80,0.00,,,0.00,WUHU216HW,2013-05-24 12:30:00,
2013-05-24 06:31:00,52.2,46.3,29.79,ENE,68,0.4,1.8,80,0.00,,,0.00,WUHU216HW,2013-05-24 12:31:00,
2013-05-24 06:33:00,52.2,46.3,29.79,NE,45,0.2,1.8,80,0.00,,,0.00,WUHU216HW,2013-05-24 12:33:00,
2013-05-24 06:34:00,52.2,46.3,29.79,ESE,113,0.2,1.8,80,0.00,,,0.00,WUHU216HW,2013-05-24 12:34:00,
2013-05-24 06:35:00,52.0,46.1,29.79,NNW,338,0.2,1.8,80,0.00,,,0.00,WUHU216HW,2013-05-24 12:35:00,
2013-05-24 06:36:00,52.0,46.1,29.79,SE,135,0.4,0.9,80,0.00,,,0.00,WUHU216HW,2013-05-24 12:36:00,
2013-05-24 06:38:00,52.0,46.1,29.79,ENE,68,1.1,1.1,80,0.00,,,0.00,WUHU216HW,2013-05-24 12:38:00,
2013-05-24 06:39:00,52.0,46.1,29.79,ENE,68,1.1,1.1,80,0.00,,,0.00,WUHU216HW,2013-05-24 12:39:00,
2013-05-24 06:41:00,51.8,45.9,29.79,NE,45,4.0,4.0,80,0.00,,,0.00,WUHU216HW,2013-05-24 12:41:00,
2013-05-24 06:44:00,51.8,45.9,29.79,NNW,338,0.4,4.0,80,0.00,,,0.00,WUHU216HW,2013-05-24 12:44:00,
2013-05-24 06:45:00,51.8,45.9,29.80,NNW,338,0.0,4.0,80,0.00,,,0.00,WUHU216HW,2013-05-24 12:45:00,
2013-05-24 06:46:00,51.8,45.9,29.80,NNW,338,0.7,4.0,80,0.00,,,0.00,WUHU216HW,2013-05-24 12:46:00,
2013-05-24 06:49:00,51.8,45.9,29.80,NNW,338,0.4,4.0,80,0.00,,,0.00,WUHU216HW,2013-05-24 12:49:00,
2013-05-24 06:50:00,51.8,45.9,29.80,NW,315,1.1,4.0,80,0.00,,,0.00,WUHU216HW,2013-05-24 12:50:00,
2013-05-24 06:51:00,51.8,45.9,29.80,NNE,23,2.7,2.9,80,0.00,,,0.00,WUHU216HW,2013-05-24 12:51:00,
2013-05-24 06:52:00,51.8,45.9,29.80,NNE,23,2.7,2.9,80,0.00,,,0.00,WUHU216HW,2013-05-24 12:52:00,
2013-05-24 06:54:00,51.8,45.9,29.80,ENE,68,0.4,2.7,80,0.00,,,0.00,WUHU216HW,2013-05-24 12:54:00,
2013-05-24 06:55:00,51.8,45.9,29.80,NE,45,0.4,2.7,80,0.00,,,0.00,WUHU216HW,2013-05-24 12:55:00,
2013-05-24 06:57:00,51.8,45.9,29.80,ENE,68,0.4,2.7,80,0.00,,,0.00,WUHU216HW,2013-05-24 12:57:00,
2013-05-24 06:59:00,51.8,45.9,29.80,NE,45,0.4,2.7,80,0.00,,,0.00,WUHU216HW,2013-05-24 12:59:00,
2013-05-24 07:00:00,51.8,45.9,29.80,NE,45,0.4,2.7,80,0.00,,,0.00,WUHU216HW,2013-05-24 13:00:00,
2013-05-24 07:02:00,51.8,45.9,29.80,ENE,68,0.7,2.0,80,0.00,,,0.00,WUHU216HW,2013-05-24 13:02:00,
2013-05-24 07:04:00,51.7,45.7,29.80,ENE,68,0.2,2.0,80,0.00,,,0.00,WUHU216HW,2013-05-24 13:04:00,
2013-05-24 07:05:00,51.7,45.7,29.80,North,0,0.2,2.0,80,0.00,,,0.00,WUHU216HW,2013-05-24 13:05:00,
2013-05-24 07:07:00,51.7,45.7,29.80,North,0,0.2,2.0,80,0.00,,,0.00,WUHU216HW,2013-05-24 13:07:00,
2013-05-24 07:09:00,51.7,45.7,29.80,North,0,0.2,2.0,80,0.00,,,0.00,WUHU216HW,2013-05-24 13:09:00,
2013-05-24 07:10:00,51.7,45.7,29.80,North,0,0.0,2.0,80,0.00,,,0.00,WUHU216HW,2013-05-24 13:10:00,
2013-05-24 07:12:00,51.7,45.7,29.80,ENE,68,0.7,0.7,80,0.00,,,0.00,WUHU216HW,2013-05-24 13:12:00,
2013-05-24 07:15:00,51.7,45.7,29.80,ENE,68,0.9,0.9,80,0.00,,,0.00,WUHU216HW,2013-05-24 13:15:00,
2013-05-24 07:16:00,51.7,45.7,29.80,ENE,68,0.9,0.9,80,0.00,,,0.00,WUHU216HW,2013-05-24 13:16:00,
2013-05-24 07:17:00,51.7,45.7,29.80,ENE,68,0.2,0.9,80,0.00,,,0.00,WUHU216HW,2013-05-24 13:17:00,
2013-05-24 07:18:00,51.7,45.7,29.80,ENE,68,0.0,0.9,80,0.00,,,0.00,WUHU216HW,2013-05-24 13:18:00,
2013-05-24 07:20:00,51.7,45.7,29.80,ENE,68,2.0,2.0,80,0.00,,,0.00,WUHU216HW,2013-05-24 13:20:00,
2013-05-24 07:21:00,51.7,45.7,29.80,ENE,68,1.6,2.0,80,0.00,,,0.00,WUHU216HW,2013-05-24 13:21:00,
2013-05-24 07:22:00,51.8,45.9,29.80,NNE,23,1.8,2.0,80,0.00,,,0.00,WUHU216HW,2013-05-24 13:22:00,
2013-05-24 07:23:00,51.7,45.7,29.80,ENE,68,2.5,2.5,80,0.00,,,0.00,WUHU216HW,2013-05-24 13:23:00,
2013-05-24 07:25:00,51.7,45.7,29.81,NNE,23,1.1,2.9,80,0.00,,,0.00,WUHU216HW,2013-05-24 13:25:00,
2013-05-24 07:26:00,51.7,45.7,29.81,ESE,113,0.4,2.9,80,0.00,,,0.00,WUHU216HW,2013-05-24 13:26:00,
2013-05-24 07:28:00,51.7,45.7,29.80,ENE,68,1.1,2.9,80,0.00,,,0.00,WUHU216HW,2013-05-24 13:28:00,
2013-05-24 07:30:00,51.5,45.5,29.80,ENE,68,0.0,2.9,80,0.00,,,0.00,WUHU216HW,2013-05-24 13:30:00,
2013-05-24 07:31:00,51.5,45.5,29.80,ENE,68,0.0,2.9,80,0.00,,,0.00,WUHU216HW,2013-05-24 13:31:00,
2013-05-24 07:33:00,51.5,45.5,29.80,NE,45,0.9,2.9,80,0.00,,,0.00,WUHU216HW,2013-05-24 13:33:00,
2013-05-24 07:34:00,51.5,45.5,29.80,NE,45,0.7,1.3,80,0.00,,,0.00,WUHU216HW,2013-05-24 13:34:00,
2013-05-24 07:36:00,51.5,45.5,29.80,NE,45,0.4,1.3,80,0.00,,,0.00,WUHU216HW,2013-05-24 13:36:00,
2013-05-24 07:37:00,51.5,45.5,29.81,NE,45,0.4,1.3,80,0.00,,,0.00,WUHU216HW,2013-05-24 13:37:00,
2013-05-24 07:38:00,51.5,45.5,29.81,ENE,68,0.7,0.9,80,0.00,,,0.00,WUHU216HW,2013-05-24 13:38:00,
2013-05-24 07:39:00,51.5,45.5,29.81,ENE,68,0.7,0.9,80,0.00,,,0.00,WUHU216HW,2013-05-24 13:39:00,
2013-05-24 07:41:00,51.7,45.7,29.80,NNE,23,3.6,3.6,80,0.00,,,0.00,WUHU216HW,2013-05-24 13:41:00,
2013-05-24 07:42:00,51.7,45.7,29.80,ENE,68,0.4,3.6,80,0.00,,,0.00,WUHU216HW,2013-05-24 13:42:00,
2013-05-24 07:43:00,51.7,45.7,29.80,ENE,68,0.0,3.6,80,0.00,,,0.00,WUHU216HW,2013-05-24 13:43:00,
2013-05-24 07:44:00,51.7,45.7,29.80,ENE,68,0.0,3.6,80,0.00,,,0.00,WUHU216HW,2013-05-24 13:44:00,
2013-05-24 07:46:00,51.7,45.7,29.80,ENE,68,0.2,3.6,80,0.00,,,0.00,WUHU216HW,2013-05-24 13:46:00,
2013-05-24 07:47:00,51.7,45.7,29.80,ENE,68,0.0,3.6,80,0.00,,,0.00,WUHU216HW,2013-05-24 13:47:00,
2013-05-24 07:48:00,51.7,45.7,29.80,NE,45,0.9,3.6,80,0.00,,,0.00,WUHU216HW,2013-05-24 13:48:00,
2013-05-24 07:49:00,51.5,45.5,29.80,NNE,23,1.8,3.6,80,0.00,,,0.00,WUHU216HW,2013-05-24 13:49:00,
2013-05-24 07:51:00,51.5,45.5,29.80,NE,45,2.2,2.2,80,0.00,,,0.00,WUHU216HW,2013-05-24 13:51:00,
2013-05-24 07:52:00,51.5,45.5,29.80,ENE,68,1.3,2.2,80,0.00,,,0.00,WUHU216HW,2013-05-24 13:52:00,
2013-05-24 07:53:00,51.5,45.2,29.80,NE,45,1.1,2.2,79,0.00,,,0.00,WUHU216HW,2013-05-24 13:53:00,
2013-05-24 07:54:00,51.5,45.2,29.80,NNE,23,1.8,2.2,79,0.00,,,0.00,WUHU216HW,2013-05-24 13:54:00,
2013-05-24 07:56:00,51.3,45.0,29.80,NE,45,1.1,2.2,79,0.00,,,0.00,WUHU216HW,2013-05-24 13:56:00,
2013-05-24 07:57:00,51.3,45.0,29.80,NE,45,1.6,2.2,79,0.00,,,0.00,WUHU216HW,2013-05-24 13:57:00,
2013-05-24 07:58:00,51.3,45.0,29.80,NE,45,1.6,2.2,79,0.00,,,0.00,WUHU216HW,2013-05-24 13:58:00,
2013-05-24 07:59:00,51.3,45.0,29.80,NE,45,1.6,2.2,79,0.00,,,0.00,WUHU216HW,2013-05-24 13:59:00,
2013-05-24 08:01:00,51.3,45.0,29.81,NE,45,0.0,1.8,79,0.00,,,0.00,WUHU216HW,2013-05-24 14:01:00,
2013-05-24 08:02:00,51.3,45.0,29.81,NNW,338,0.0,1.8,79,0.00,,,0.00,WUHU216HW,2013-05-24 14:02:00,
2013-05-24 08:03:00,51.3,45.0,29.81,NNW,338,0.0,1.8,79,0.00,,,0.00,WUHU216HW,2013-05-24 14:03:00,
2013-05-24 08:04:00,51.3,45.4,29.81,NNW,338,0.0,1.8,80,0.00,,,0.00,WUHU216HW,2013-05-24 14:04:00,
2013-05-24 08:06:00,51.3,45.4,29.81,NNE,23,0.9,1.6,80,0.00,,,0.00,WUHU216HW,2013-05-24 14:06:00,
2013-05-24 08:08:00,51.5,45.5,29.81,ENE,68,0.9,1.6,80,0.00,,,0.00,WUHU216HW,2013-05-24 14:08:00,
2013-05-24 08:09:00,51.5,45.5,29.82,ENE,68,3.1,3.1,80,0.00,,,0.00,WUHU216HW,2013-05-24 14:09:00,
2013-05-24 08:11:00,51.5,45.5,29.82,ENE,68,3.8,3.8,80,0.00,,,0.00,WUHU216HW,2013-05-24 14:11:00,
2013-05-24 08:13:00,51.7,45.7,29.82,NE,45,3.1,3.8,80,0.00,,,0.00,WUHU216HW,2013-05-24 14:13:00,
2013-05-24 08:14:00,51.7,45.7,29.82,NE,45,2.5,3.8,80,0.00,,,0.00,WUHU216HW,2013-05-24 14:14:00,
2013-05-24 08:16:00,51.8,45.9,29.82,North,0,1.1,3.8,80,0.00,,,0.00,WUHU216HW,2013-05-24 14:16:00,
2013-05-24 08:18:00,51.8,45.9,29.82,WNW,293,0.4,3.8,80,0.00,,,0.00,WUHU216HW,2013-05-24 14:18:00,
2013-05-24 08:19:00,51.8,45.9,29.82,NW,315,0.9,3.8,80,0.00,,,0.00,WUHU216HW,2013-05-24 14:19:00,
2013-05-24 08:20:00,51.8,45.9,29.82,NW,315,0.9,3.8,80,0.00,,,0.00,WUHU216HW,2013-05-24 14:20:00,
2013-05-24 08:21:00,52.0,46.1,29.82,West,270,0.4,3.1,80,0.00,,,0.00,WUHU216HW,2013-05-24 14:21:00,
2013-05-24 08:23:00,52.2,46.3,29.82,WSW,248,0.4,2.5,80,0.00,,,0.00,WUHU216HW,2013-05-24 14:23:00,
2013-05-24 08:25:00,52.2,45.9,29.82,WSW,248,2.5,2.5,79,0.00,,,0.00,WUHU216HW,2013-05-24 14:25:00,
2013-05-24 08:26:00,52.4,46.1,29.82,West,270,1.1,2.5,79,0.00,,,0.00,WUHU216HW,2013-05-24 14:26:00,
2013-05-24 08:28:00,52.4,46.1,29.82,WNW,293,0.9,2.5,79,0.00,,,0.00,WUHU216HW,2013-05-24 14:28:00,
2013-05-24 08:29:00,52.4,46.1,29.82,WNW,293,0.9,2.5,79,0.00,,,0.00,WUHU216HW,2013-05-24 14:29:00,
2013-05-24 08:30:00,52.6,46.3,29.82,WNW,293,0.4,2.5,79,0.00,,,0.00,WUHU216HW,2013-05-24 14:30:00,
2013-05-24 08:32:00,52.6,46.3,29.82,WSW,248,2.2,2.5,79,0.00,,,0.00,WUHU216HW,2013-05-24 14:32:00,
2013-05-24 08:33:00,52.9,46.6,29.82,SW,225,2.5,2.5,79,0.00,,,0.00,WUHU216HW,2013-05-24 14:33:00,
2013-05-24 08:34:00,52.9,46.6,29.82,SW,225,2.5,2.5,79,0.00,,,0.00,WUHU216HW,2013-05-24 14:34:00,
2013-05-24 08:35:00,52.9,46.6,29.82,SSW,203,0.9,2.5,79,0.00,,,0.00,WUHU216HW,2013-05-24 14:35:00,
2013-05-24 08:38:00,53.1,46.8,29.82,SW,225,1.8,3.1,79,0.00,,,0.00,WUHU216HW,2013-05-24 14:38:00,
2013-05-24 08:39:00,53.1,46.8,29.82,SW,225,1.8,3.1,79,0.00,,,0.00,WUHU216HW,2013-05-24 14:39:00,
2013-05-24 08:40:00,53.3,47.0,29.82,SW,225,2.0,3.1,79,0.00,,,0.00,WUHU216HW,2013-05-24 14:40:00,
2013-05-24 08:43:00,53.5,47.2,29.82,SW,225,1.1,3.1,79,0.00,,,0.00,WUHU216HW,2013-05-24 14:43:00,
2013-05-24 08:44:00,53.5,47.2,29.82,SSE,158,1.3,3.1,79,0.00,,,0.00,WUHU216HW,2013-05-24 14:44:00,
2013-05-24 08:45:00,53.6,47.3,29.82,WSW,248,0.9,3.1,79,0.00,,,0.00,WUHU216HW,2013-05-24 14:45:00,
2013-05-24 08:48:00,53.6,47.0,29.82,SW,225,1.8,2.0,78,0.00,,,0.00,WUHU216HW,2013-05-24 14:48:00,
2013-05-24 08:49:00,53.6,47.0,29.82,SW,225,1.8,2.0,78,0.00,,,0.00,WUHU216HW,2013-05-24 14:49:00,
2013-05-24 08:50:00,54.0,47.4,29.82,WSW,248,0.4,1.8,78,0.00,,,0.00,WUHU216HW,2013-05-24 14:50:00,
2013-05-24 08:51:00,54.0,47.4,29.83,SSW,203,0.4,1.8,78,0.00,,,0.00,WUHU216HW,2013-05-24 14:51:00,
2013-05-24 08:54:00,54.4,47.6,29.83,SSW,203,0.0,1.8,78,0.00,,,0.00,WUHU216HW,2013-05-24 14:54:00,
2013-05-24 08:55:00,54.4,47.6,29.83,NNE,23,2.0,2.0,78,0.00,,,0.00,WUHU216HW,2013-05-24 14:55:00,
2013-05-24 08:56:00,54.5,47.8,29.83,NE,45,1.8,2.0,78,0.00,,,0.00,WUHU216HW,2013-05-24 14:56:00,
2013-05-24 08:59:00,54.9,47.8,29.83,NE,45,0.2,2.0,77,0.00,,,0.00,WUHU216HW,2013-05-24 14:59:00,
2013-05-24 09:00:00,54.9,47.8,29.82,WNW,293,1.6,2.0,77,0.00,,,0.00,WUHU216HW,2013-05-24 15:00:00,
2013-05-24 09:01:00,55.1,48.0,29.83,North,0,0.4,2.0,77,0.00,,,0.00,WUHU216HW,2013-05-24 15:01:00,
2013-05-24 09:04:00,55.3,47.8,29.83,NNW,338,0.0,1.8,76,0.00,,,0.00,WUHU216HW,2013-05-24 15:04:00,
2013-05-24 09:05:00,55.4,48.0,29.83,SSE,158,0.4,1.6,76,0.00,,,0.00,WUHU216HW,2013-05-24 15:05:00,
2013-05-24 09:06:00,55.6,48.2,29.83,NNW,338,0.9,1.6,76,0.00,,,0.00,WUHU216HW,2013-05-24 15:06:00,
2013-05-24 09:10:00,56.0,48.2,29.83,NNW,338,1.3,2.0,75,0.00,,,0.00,WUHU216HW,2013-05-24 15:10:00,
2013-05-24 09:11:00,56.2,48.0,29.83,East,90,0.7,2.0,74,0.00,,,0.00,WUHU216HW,2013-05-24 15:11:00,
2013-05-24 09:12:00,56.2,47.6,29.83,West,270,1.8,2.0,73,0.00,,,0.00,WUHU216HW,2013-05-24 15:12:00,
2013-05-24 09:15:00,56.3,47.8,29.83,WSW,248,1.8,2.0,73,0.00,,,0.00,WUHU216HW,2013-05-24 15:15:00,
2013-05-24 09:16:00,56.3,47.8,29.83,WSW,248,1.8,2.0,73,0.00,,,0.00,WUHU216HW,2013-05-24 15:16:00,
2013-05-24 09:17:00,56.5,47.6,29.83,NW,315,0.2,2.0,72,0.00,,,0.00,WUHU216HW,2013-05-24 15:17:00,
2013-05-24 09:20:00,56.9,47.9,29.83,ENE,68,1.8,2.0,72,0.00,,,0.00,WUHU216HW,2013-05-24 15:20:00,
2013-05-24 09:21:00,56.9,47.9,29.83,ENE,68,1.8,2.0,72,0.00,,,0.00,WUHU216HW,2013-05-24 15:21:00,
2013-05-24 09:22:00,56.9,47.9,29.83,ENE,68,1.8,2.0,72,0.00,,,0.00,WUHU216HW,2013-05-24 15:22:00,
2013-05-24 09:25:00,56.9,47.9,29.83,ENE,68,1.8,2.0,72,0.00,,,0.00,WUHU216HW,2013-05-24 15:25:00,
2013-05-24 09:26:00,56.9,47.9,29.83,ENE,68,1.8,1.8,72,0.00,,,0.00,WUHU216HW,2013-05-24 15:26:00,
2013-05-24 09:27:00,56.9,47.9,29.83,ENE,68,1.8,1.8,72,0.00,,,0.00,WUHU216HW,2013-05-24 15:27:00,
2013-05-24 09:48:00,59.8,44.9,29.84,NW,315,2.9,2.9,58,0.00,,,0.00,WUHU216HW,2013-05-24 15:48:00,
2013-05-24 09:53:00,59.8,44.5,29.84,NW,315,2.9,3.8,57,0.00,,,0.00,WUHU216HW,2013-05-24 15:53:00,
2013-05-24 09:54:00,59.9,44.6,29.84,North,0,4.0,4.0,57,0.00,,,0.00,WUHU216HW,2013-05-24 15:54:00,
2013-05-24 09:58:00,59.9,44.2,29.84,WNW,293,3.4,4.0,56,0.00,,,0.00,WUHU216HW,2013-05-24 15:58:00,
2013-05-24 09:59:00,59.9,44.2,29.84,WNW,293,3.4,4.0,56,0.00,,,0.00,WUHU216HW,2013-05-24 15:59:00,
2013-05-24 10:03:00,60.1,43.4,29.84,NNW,338,4.0,6.9,54,0.00,,,0.00,WUHU216HW,2013-05-24 16:03:00,
2013-05-24 10:04:00,60.1,43.8,29.84,WSW,248,1.8,6.9,55,0.00,,,0.00,WUHU216HW,2013-05-24 16:04:00,
2013-05-24 10:08:00,60.3,42.6,29.84,NNW,338,6.3,6.9,52,0.00,,,0.00,WUHU216HW,2013-05-24 16:08:00,
2013-05-24 10:09:00,60.3,42.1,29.83,NNW,338,6.3,6.9,51,0.00,,,0.00,WUHU216HW,2013-05-24 16:09:00,
2013-05-24 10:13:00,60.5,42.8,29.84,NW,315,5.4,6.3,52,0.00,,,0.00,WUHU216HW,2013-05-24 16:13:00,
2013-05-24 10:14:00,60.7,42.9,29.83,NW,315,2.7,6.3,52,0.00,,,0.00,WUHU216HW,2013-05-24 16:14:00,
2013-05-24 10:18:00,60.7,42.5,29.83,NW,315,6.3,6.3,51,0.00,,,0.00,WUHU216HW,2013-05-24 16:18:00,
2013-05-24 10:19:00,60.8,43.1,29.84,WNW,293,3.8,6.3,52,0.00,,,0.00,WUHU216HW,2013-05-24 16:19:00,
2013-05-24 10:20:00,60.8,43.1,29.84,WNW,293,3.8,6.3,52,0.00,,,0.00,WUHU216HW,2013-05-24 16:20:00,
2013-05-24 10:24:00,61.2,42.9,29.83,SSW,203,3.6,6.3,51,0.00,,,0.00,WUHU216HW,2013-05-24 16:24:00,
2013-05-24 10:25:00,61.2,42.9,29.83,SSW,203,3.6,6.3,51,0.00,,,0.00,WUHU216HW,2013-05-24 16:25:00,
2013-05-24 10:29:00,61.6,43.3,29.84,NNW,338,4.0,6.3,51,0.00,,,0.00,WUHU216HW,2013-05-24 16:29:00,
2013-05-24 10:30:00,61.6,43.3,29.84,NNW,338,4.0,6.3,51,0.00,,,0.00,WUHU216HW,2013-05-24 16:30:00,
2013-05-24 10:34:00,62.1,42.1,29.83,NW,315,3.4,6.3,48,0.00,,,0.00,WUHU216HW,2013-05-24 16:34:00,
2013-05-24 10:35:00,62.1,42.1,29.83,NW,315,3.4,6.3,48,0.00,,,0.00,WUHU216HW,2013-05-24 16:35:00,
2013-05-24 10:39:00,62.6,42.0,29.83,NW,315,4.7,4.9,47,0.00,,,0.00,WUHU216HW,2013-05-24 16:39:00,
2013-05-24 10:40:00,62.6,42.0,29.83,NW,315,4.7,4.9,47,0.00,,,0.00,WUHU216HW,2013-05-24 16:40:00,
2013-05-24 10:41:00,62.6,42.0,29.83,North,0,4.0,5.4,47,0.00,,,0.00,WUHU216HW,2013-05-24 16:41:00,
2013-05-24 10:44:00,63.0,41.2,29.83,North,0,4.0,5.6,45,0.00,,,0.00,WUHU216HW,2013-05-24 16:44:00,
2013-05-24 10:45:00,63.0,41.2,29.83,North,0,4.0,5.6,45,0.00,,,0.00,WUHU216HW,2013-05-24 16:45:00,
2013-05-24 10:46:00,63.2,41.3,29.83,NNW,338,4.9,5.6,45,0.00,,,0.00,WUHU216HW,2013-05-24 16:46:00,
2013-05-24 10:49:00,63.4,41.0,29.84,North,0,5.4,5.6,44,0.00,,,0.00,WUHU216HW,2013-05-24 16:49:00,
2013-05-24 10:50:00,63.4,41.0,29.84,North,0,5.4,5.6,44,0.00,,,0.00,WUHU216HW,2013-05-24 16:50:00,
2013-05-24 10:51:00,63.4,41.0,29.84,WNW,293,3.1,5.6,44,0.00,,,0.00,WUHU216HW,2013-05-24 16:51:00,
2013-05-24 10:55:00,63.5,40.5,29.84,NW,315,3.4,6.5,43,0.00,,,0.00,WUHU216HW,2013-05-24 16:55:00,
2013-05-24 10:56:00,63.7,41.2,29.84,NW,315,4.5,6.5,44,0.00,,,0.00,WUHU216HW,2013-05-24 16:56:00,
2013-05-24 10:57:00,63.7,41.2,29.84,NW,315,4.5,6.5,44,0.00,,,0.00,WUHU216HW,2013-05-24 16:57:00,
2013-05-24 11:00:00,63.9,39.7,29.84,North,0,5.6,7.8,41,0.00,,,0.00,WUHU216HW,2013-05-24 17:00:00,
2013-05-24 11:01:00,63.9,39.7,29.83,WNW,293,4.7,7.8,41,0.00,,,0.00,WUHU216HW,2013-05-24 17:01:00,
2013-05-24 11:02:00,63.9,39.2,29.83,North,0,4.3,7.8,40,0.00,,,0.00,WUHU216HW,2013-05-24 17:02:00,
2013-05-24 11:05:00,64.1,39.9,29.84,North,0,7.4,7.8,41,0.00,,,0.00,WUHU216HW,2013-05-24 17:05:00,
2013-05-24 11:06:00,64.3,38.7,29.84,North,0,5.4,7.8,39,0.00,,,0.00,WUHU216HW,2013-05-24 17:06:00,
2013-05-24 11:07:00,64.1,38.5,29.83,NNE,23,1.1,7.8,39,0.00,,,0.00,WUHU216HW,2013-05-24 17:07:00,
2013-05-24 11:10:00,64.3,35.1,29.84,WNW,293,6.3,7.4,34,0.00,,,0.00,WUHU216HW,2013-05-24 17:10:00,
2013-05-24 11:11:00,64.3,35.1,29.84,WNW,293,6.3,7.4,34,0.00,,,0.00,WUHU216HW,2013-05-24 17:11:00,
2013-05-24 11:12:00,64.3,37.3,29.84,NW,315,4.9,9.2,37,0.00,,,0.00,WUHU216HW,2013-05-24 17:12:00,
2013-05-24 11:16:00,64.3,39.4,29.84,North,0,4.0,9.2,40,0.00,,,0.00,WUHU216HW,2013-05-24 17:16:00,
2013-05-24 11:17:00,64.4,38.9,29.84,North,0,5.1,9.2,39,0.00,,,0.00,WUHU216HW,2013-05-24 17:17:00,
2013-05-24 11:21:00,64.6,37.6,29.84,North,0,5.4,5.8,37,0.00,,,0.00,WUHU216HW,2013-05-24 17:21:00,
2013-05-24 11:22:00,64.6,37.6,29.84,North,0,5.4,5.8,37,0.00,,,0.00,WUHU216HW,2013-05-24 17:22:00,
2013-05-24 11:23:00,64.8,39.3,29.84,North,0,3.8,5.8,39,0.00,,,0.00,WUHU216HW,2013-05-24 17:23:00,
2013-05-24 11:26:00,64.8,38.5,29.84,WNW,293,4.0,5.8,38,0.00,,,0.00,WUHU216HW,2013-05-24 17:26:00,
2013-05-24 11:27:00,64.8,38.5,29.84,WNW,293,4.0,5.8,38,0.00,,,0.00,WUHU216HW,2013-05-24 17:27:00,
2013-05-24 11:28:00,65.2,38.1,29.84,WSW,248,4.7,6.7,37,0.00,,,0.00,WUHU216HW,2013-05-24 17:28:00,
2013-05-24 11:31:00,65.3,39.0,29.84,NNW,338,4.0,6.7,38,0.00,,,0.00,WUHU216HW,2013-05-24 17:31:00,
2013-05-24 11:32:00,65.3,39.0,29.84,NW,315,4.7,6.7,38,0.00,,,0.00,WUHU216HW,2013-05-24 17:32:00,
2013-05-24 11:33:00,65.3,39.0,29.84,NW,315,4.7,6.7,38,0.00,,,0.00,WUHU216HW,2013-05-24 17:33:00,
2013-05-24 11:36:00,65.7,40.1,29.84,West,270,2.9,6.7,39,0.00,,,0.00,WUHU216HW,2013-05-24 17:36:00,
2013-05-24 11:37:00,65.7,39.3,29.84,NW,315,2.5,5.1,38,0.00,,,0.00,WUHU216HW,2013-05-24 17:37:00,
2013-05-24 11:38:00,65.7,39.3,29.84,NW,315,2.5,5.1,38,0.00,,,0.00,WUHU216HW,2013-05-24 17:38:00,
2013-05-24 11:39:00,65.9,40.1,29.84,NNW,338,2.9,5.1,39,0.00,,,0.00,WUHU216HW,2013-05-24 17:39:00,
2013-05-24 11:41:00,66.2,39.8,29.84,NNW,338,4.3,5.1,38,0.00,,,0.00,WUHU216HW,2013-05-24 17:41:00,
2013-05-24 11:43:00,66.2,39.1,29.84,NW,315,2.2,5.1,37,0.00,,,0.00,WUHU216HW,2013-05-24 17:43:00,
2013-05-24 11:44:00,66.2,39.8,29.84,NW,315,2.0,4.7,38,0.00,,,0.00,WUHU216HW,2013-05-24 17:44:00,
2013-05-24 11:46:00,66.4,40.0,29.84,NNW,338,3.8,4.7,38,0.00,,,0.00,WUHU216HW,2013-05-24 17:46:00,
2013-05-24 11:47:00,66.4,40.0,29.84,NNW,338,3.8,4.7,38,0.00,,,0.00,WUHU216HW,2013-05-24 17:47:00,
2013-05-24 11:48:00,66.6,39.3,29.84,WNW,293,6.0,6.0,37,0.00,,,0.00,WUHU216HW,2013-05-24 17:48:00,
2013-05-24 11:49:00,66.6,40.2,29.84,North,0,1.6,6.0,38,0.00,,,0.00,WUHU216HW,2013-05-24 17:49:00,
2013-05-24 11:51:00,66.6,39.3,29.84,NNW,338,3.1,6.0,37,0.00,,,0.00,WUHU216HW,2013-05-24 17:51:00,
2013-05-24 11:52:00,66.6,39.3,29.84,NNW,338,3.1,6.0,37,0.00,,,0.00,WUHU216HW,2013-05-24 17:52:00,
2013-05-24 11:53:00,66.8,40.2,29.84,NNW,338,2.7,6.0,38,0.00,,,0.00,WUHU216HW,2013-05-24 17:53:00,
2013-05-24 11:54:00,66.8,41.0,29.84,West,270,4.0,6.0,39,0.00,,,0.00,WUHU216HW,2013-05-24 17:54:00,
2013-05-24 11:56:00,67.0,39.0,29.84,NNE,23,4.3,9.2,36,0.00,,,0.00,WUHU216HW,2013-05-24 17:56:00,
2013-05-24 11:57:00,67.0,39.7,29.84,WNW,293,4.0,9.2,37,0.00,,,0.00,WUHU216HW,2013-05-24 17:57:00,
2013-05-24 11:58:00,67.0,39.7,29.84,NNW,338,5.4,9.2,37,0.00,,,0.00,WUHU216HW,2013-05-24 17:58:00,
2013-05-24 11:59:00,67.0,39.7,29.84,NNW,338,5.4,9.2,37,0.00,,,0.00,WUHU216HW,2013-05-24 17:59:00,
2013-05-24 12:01:00,67.1,40.6,29.84,WNW,293,4.3,9.2,38,0.00,,,0.00,WUHU216HW,2013-05-24 18:01:00,
2013-05-24 12:03:00,67.3,40.8,29.84,WNW,293,3.8,9.2,38,0.00,,,0.00,WUHU216HW,2013-05-24 18:03:00,
2013-05-24 12:04:00,67.3,40.8,29.84,NW,315,0.7,6.3,38,0.00,,,0.00,WUHU216HW,2013-05-24 18:04:00,
2013-05-24 12:05:00,67.3,39.2,29.84,NW,315,3.8,6.3,36,0.00,,,0.00,WUHU216HW,2013-05-24 18:05:00,
2013-05-24 12:07:00,67.5,38.0,29.84,West,270,4.9,8.3,34,0.00,,,0.00,WUHU216HW,2013-05-24 18:07:00,
2013-05-24 12:08:00,67.5,40.1,29.84,NW,315,2.9,8.3,37,0.00,,,0.00,WUHU216HW,2013-05-24 18:08:00,
2013-05-24 12:09:00,67.5,40.1,29.84,NW,315,2.9,8.3,37,0.00,,,0.00,WUHU216HW,2013-05-24 18:09:00,
2013-05-24 12:10:00,67.7,40.3,29.84,NW,315,3.4,8.3,37,0.00,,,0.00,WUHU216HW,2013-05-24 18:10:00,
2013-05-24 12:12:00,67.7,38.9,29.84,West,270,4.7,8.3,35,0.00,,,0.00,WUHU216HW,2013-05-24 18:12:00,
2013-05-24 12:13:00,67.7,38.9,29.84,WSW,248,1.3,8.3,35,0.00,,,0.00,WUHU216HW,2013-05-24 18:13:00,
2013-05-24 12:14:00,67.7,38.1,29.84,North,0,7.6,8.3,34,0.00,,,0.00,WUHU216HW,2013-05-24 18:14:00,
2013-05-24 12:15:00,67.7,38.1,29.84,NW,315,5.4,8.3,34,0.00,,,0.00,WUHU216HW,2013-05-24 18:15:00,
2013-05-24 12:17:00,67.7,38.1,29.84,NW,315,4.9,7.6,34,0.00,,,0.00,WUHU216HW,2013-05-24 18:17:00,
2013-05-24 12:19:00,67.7,38.1,29.84,West,270,3.4,7.6,34,0.00,,,0.00,WUHU216HW,2013-05-24 18:19:00,
2013-05-24 12:20:00,67.7,38.9,29.84,North,0,1.8,7.6,35,0.00,,,0.00,WUHU216HW,2013-05-24 18:20:00,
2013-05-24 12:22:00,67.9,36.8,29.84,NW,315,7.4,7.6,32,0.00,,,0.00,WUHU216HW,2013-05-24 18:22:00,
2013-05-24 12:24:00,67.9,37.5,29.84,SSW,203,10.1,10.1,33,0.00,,,0.00,WUHU216HW,2013-05-24 18:24:00,
2013-05-24 12:25:00,68.0,39.2,29.84,WNW,293,4.9,10.1,35,0.00,,,0.00,WUHU216HW,2013-05-24 18:25:00,
2013-05-24 12:27:00,68.0,37.7,29.84,NW,315,5.1,10.1,33,0.00,,,0.00,WUHU216HW,2013-05-24 18:27:00,
2013-05-24 12:29:00,68.2,37.8,29.83,WSW,248,4.0,10.1,33,0.00,,,0.00,WUHU216HW,2013-05-24 18:29:00,
2013-05-24 12:30:00,68.2,38.6,29.83,WNW,293,4.0,10.1,34,0.00,,,0.00,WUHU216HW,2013-05-24 18:30:00,
2013-05-24 12:32:00,68.4,38.7,29.83,NW,315,1.6,10.1,34,0.00,,,0.00,WUHU216HW,2013-05-24 18:32:00,
2013-05-24 12:34:00,68.6,38.9,29.83,NNW,338,5.1,5.4,34,0.00,,,0.00,WUHU216HW,2013-05-24 18:34:00,
2013-05-24 12:35:00,68.6,38.9,29.83,WNW,293,3.4,5.4,34,0.00,,,0.00,WUHU216HW,2013-05-24 18:35:00,
2013-05-24 12:38:00,68.6,38.2,29.83,NW,315,1.3,5.6,33,0.00,,,0.00,WUHU216HW,2013-05-24 18:38:00,
2013-05-24 12:39:00,68.6,37.5,29.83,NW,315,3.4,5.6,32,0.00,,,0.00,WUHU216HW,2013-05-24 18:39:00,
2013-05-24 12:40:00,68.6,37.5,29.83,NW,315,3.4,5.6,32,0.00,,,0.00,WUHU216HW,2013-05-24 18:40:00,
2013-05-24 12:43:00,68.8,37.6,29.83,WNW,293,3.8,5.8,32,0.00,,,0.00,WUHU216HW,2013-05-24 18:43:00,
2013-05-24 12:44:00,68.6,38.2,29.83,NW,315,1.6,5.8,33,0.00,,,0.00,WUHU216HW,2013-05-24 18:44:00,
2013-05-24 12:45:00,68.6,38.2,29.83,NW,315,1.6,5.8,33,0.00,,,0.00,WUHU216HW,2013-05-24 18:45:00,
2013-05-24 12:48:00,68.6,37.5,29.83,WNW,293,2.0,5.8,32,0.00,,,0.00,WUHU216HW,2013-05-24 18:48:00,
2013-05-24 12:50:00,68.6,35.9,29.83,West,270,9.2,9.2,30,0.00,,,0.00,WUHU216HW,2013-05-24 18:50:00,
2013-05-24 12:53:00,68.8,38.4,29.83,WNW,293,4.5,9.2,33,0.00,,,0.00,WUHU216HW,2013-05-24 18:53:00,
2013-05-24 12:55:00,68.9,38.5,29.83,NNW,338,3.4,9.2,33,0.00,,,0.00,WUHU216HW,2013-05-24 18:55:00,
2013-05-24 12:56:00,68.9,38.5,29.83,NNE,23,2.9,9.2,33,0.00,,,0.00,WUHU216HW,2013-05-24 18:56:00,
2013-05-24 12:58:00,69.1,37.2,29.83,WNW,293,4.9,9.2,31,0.00,,,0.00,WUHU216HW,2013-05-24 18:58:00,
2013-05-24 13:00:00,69.1,35.5,29.83,NW,315,6.9,6.9,29,0.00,,,0.00,WUHU216HW,2013-05-24 19:00:00,
2013-05-24 13:01:00,69.1,36.5,29.83,North,0,5.4,6.9,30,0.00,,,0.00,WUHU216HW,2013-05-24 19:01:00,
2013-05-24 13:03:00,68.9,36.3,29.83,WNW,293,3.4,6.9,30,0.00,,,0.00,WUHU216HW,2013-05-24 19:03:00,
2013-05-24 13:05:00,68.9,37.7,29.83,WSW,248,2.5,6.9,32,0.00,,,0.00,WUHU216HW,2013-05-24 19:05:00,
2013-05-24 13:06:00,69.1,37.2,29.83,NNW,338,4.7,6.9,31,0.00,,,0.00,WUHU216HW,2013-05-24 19:06:00,
2013-05-24 13:09:00,69.1,37.9,29.83,NNW,338,4.0,6.9,32,0.00,,,0.00,WUHU216HW,2013-05-24 19:09:00,
2013-05-24 13:10:00,69.3,38.1,29.83,NNW,338,3.4,5.4,32,0.00,,,0.00,WUHU216HW,2013-05-24 19:10:00,
2013-05-24 13:11:00,69.5,38.3,29.83,NNW,338,4.7,4.7,32,0.00,,,0.00,WUHU216HW,2013-05-24 19:11:00,
2013-05-24 13:14:00,69.7,37.6,29.83,WNW,293,3.8,5.4,31,0.00,,,0.00,WUHU216HW,2013-05-24 19:14:00,
2013-05-24 13:15:00,69.7,38.4,29.83,NNW,338,3.8,5.4,32,0.00,,,0.00,WUHU216HW,2013-05-24 19:15:00,
2013-05-24 13:16:00,69.7,39.2,29.82,NNW,338,3.6,5.4,33,0.00,,,0.00,WUHU216HW,2013-05-24 19:16:00,
2013-05-24 13:19:00,69.8,40.1,29.82,ENE,68,2.5,5.4,34,0.00,,,0.00,WUHU216HW,2013-05-24 19:19:00,
2013-05-24 13:20:00,70.2,38.9,29.82,West,270,4.0,5.4,32,0.00,,,0.00,WUHU216HW,2013-05-24 19:20:00,
2013-05-24 13:21:00,70.2,38.9,29.82,West,270,4.0,5.4,32,0.00,,,0.00,WUHU216HW,2013-05-24 19:21:00,
2013-05-24 13:22:00,70.2,38.9,29.82,West,270,4.0,5.4,32,0.00,,,0.00,WUHU216HW,2013-05-24 19:22:00,
2013-05-24 13:24:00,70.4,39.1,29.82,NNW,338,2.2,4.0,32,0.00,,,0.00,WUHU216HW,2013-05-24 19:24:00,
2013-05-24 13:25:00,70.4,38.4,29.82,NNW,338,2.2,4.0,31,0.00,,,0.00,WUHU216HW,2013-05-24 19:25:00,
2013-05-24 13:26:00,70.4,39.1,29.82,North,0,2.0,4.0,32,0.00,,,0.00,WUHU216HW,2013-05-24 19:26:00,
2013-05-24 13:27:00,70.4,39.1,29.82,North,0,2.0,4.0,32,0.00,,,0.00,WUHU216HW,2013-05-24 19:27:00,
2013-05-24 13:29:00,70.2,38.2,29.82,WNW,293,1.6,4.5,31,0.00,,,0.00,WUHU216HW,2013-05-24 19:29:00,
2013-05-24 13:31:00,70.2,38.9,29.82,NNE,23,0.9,4.5,32,0.00,,,0.00,WUHU216HW,2013-05-24 19:31:00,
2013-05-24 13:32:00,70.2,38.9,29.82,NNE,23,0.9,4.5,32,0.00,,,0.00,WUHU216HW,2013-05-24 19:32:00,
2013-05-24 13:34:00,70.6,37.7,29.82,West,270,1.8,4.5,30,0.00,,,0.00,WUHU216HW,2013-05-24 19:34:00,
2013-05-24 13:36:00,70.6,39.3,29.82,NNW,338,3.6,4.5,32,0.00,,,0.00,WUHU216HW,2013-05-24 19:36:00,
2013-05-24 13:37:00,70.6,39.3,29.82,NNW,338,3.6,4.5,32,0.00,,,0.00,WUHU216HW,2013-05-24 19:37:00,
2013-05-24 13:40:00,70.9,39.5,29.82,WNW,293,5.6,5.6,32,0.00,,,0.00,WUHU216HW,2013-05-24 19:40:00,
2013-05-24 13:41:00,70.9,38.8,29.82,WSW,248,3.1,5.6,31,0.00,,,0.00,WUHU216HW,2013-05-24 19:41:00,
2013-05-24 13:42:00,70.9,38.8,29.82,WSW,248,3.1,5.6,31,0.00,,,0.00,WUHU216HW,2013-05-24 19:42:00,
2013-05-24 13:45:00,71.1,39.0,29.82,NNW,338,1.6,5.6,31,0.00,,,0.00,WUHU216HW,2013-05-24 19:45:00,
2013-05-24 13:46:00,71.3,39.9,29.82,WNW,293,2.9,5.6,32,0.00,,,0.00,WUHU216HW,2013-05-24 19:46:00,
2013-05-24 13:47:00,71.3,39.9,29.82,WNW,293,2.9,5.6,32,0.00,,,0.00,WUHU216HW,2013-05-24 19:47:00,
2013-05-24 13:50:00,71.3,39.9,29.82,North,0,4.7,4.7,32,0.00,,,0.00,WUHU216HW,2013-05-24 19:50:00,
2013-05-24 13:51:00,71.3,39.2,29.82,SSW,203,2.7,4.7,31,0.00,,,0.00,WUHU216HW,2013-05-24 19:51:00,
2013-05-24 13:52:00,71.3,39.2,29.82,SSW,203,2.7,4.7,31,0.00,,,0.00,WUHU216HW,2013-05-24 19:52:00,
2013-05-24 13:55:00,71.3,38.3,29.82,NW,315,3.1,5.4,30,0.00,,,0.00,WUHU216HW,2013-05-24 19:55:00,
2013-05-24 13:57:00,71.3,38.3,29.82,NNE,23,3.4,5.4,30,0.00,,,0.00,WUHU216HW,2013-05-24 19:57:00,
2013-05-24 14:00:00,71.1,38.3,29.82,WNW,293,2.0,5.6,30,0.00,,,0.00,WUHU216HW,2013-05-24 20:00:00,
2013-05-24 14:02:00,71.3,37.4,29.82,NNW,338,2.7,5.6,29,0.00,,,0.00,WUHU216HW,2013-05-24 20:02:00,
2013-05-24 14:03:00,71.3,37.4,29.82,NNW,338,2.7,5.6,29,0.00,,,0.00,WUHU216HW,2013-05-24 20:03:00,
2013-05-24 14:05:00,71.3,37.4,29.82,South,180,3.4,5.6,29,0.00,,,0.00,WUHU216HW,2013-05-24 20:05:00,
2013-05-24 14:07:00,71.3,38.3,29.82,NW,315,4.3,5.6,30,0.00,,,0.00,WUHU216HW,2013-05-24 20:07:00,
2013-05-24 14:08:00,71.3,39.2,29.82,West,270,2.9,5.4,31,0.00,,,0.00,WUHU216HW,2013-05-24 20:08:00,
2013-05-24 14:10:00,71.5,39.2,29.81,WSW,248,1.3,5.4,31,0.00,,,0.00,WUHU216HW,2013-05-24 20:10:00,
2013-05-24 14:12:00,71.6,39.4,29.81,WSW,248,4.3,4.3,31,0.00,,,0.00,WUHU216HW,2013-05-24 20:12:00,
2013-05-24 14:13:00,71.6,38.7,29.81,NW,315,4.0,4.3,30,0.00,,,0.00,WUHU216HW,2013-05-24 20:13:00,
2013-05-24 14:15:00,71.8,37.8,29.81,SE,135,1.1,4.3,29,0.00,,,0.00,WUHU216HW,2013-05-24 20:15:00,
2013-05-24 14:17:00,72.0,39.0,29.81,West,270,0.7,4.3,30,0.00,,,0.00,WUHU216HW,2013-05-24 20:17:00,
2013-05-24 14:18:00,72.0,39.7,29.81,NW,315,2.2,4.3,31,0.00,,,0.00,WUHU216HW,2013-05-24 20:18:00,
2013-05-24 14:21:00,72.2,39.9,29.81,WNW,293,1.6,4.3,31,0.00,,,0.00,WUHU216HW,2013-05-24 20:21:00,
2013-05-24 14:23:00,72.2,39.9,29.81,WNW,293,1.6,4.3,31,0.00,,,0.00,WUHU216HW,2013-05-24 20:23:00,
2013-05-24 14:26:00,72.2,39.9,29.81,WNW,293,1.6,2.2,31,0.00,,,0.00,WUHU216HW,2013-05-24 20:26:00,
2013-05-24 14:28:00,72.2,39.9,29.81,WNW,293,1.6,1.6,31,0.00,,,0.00,WUHU216HW,2013-05-24 20:28:00,
2013-05-24 14:49:00,72.4,38.3,29.81,North,0,2.0,2.0,29,0.00,,,0.00,WUHU216HW,2013-05-24 20:49:00,
2013-05-24 14:50:00,72.4,38.3,29.81,North,0,2.0,2.0,29,0.00,,,0.00,WUHU216HW,2013-05-24 20:50:00,
2013-05-24 14:54:00,72.9,39.7,29.81,NNW,338,1.6,2.2,30,0.00,,,0.00,WUHU216HW,2013-05-24 20:54:00,
2013-05-24 14:55:00,72.9,39.7,29.81,NNW,338,1.6,2.2,30,0.00,,,0.00,WUHU216HW,2013-05-24 20:55:00,
2013-05-24 14:59:00,73.1,39.9,29.81,East,90,2.5,3.6,30,0.00,,,0.00,WUHU216HW,2013-05-24 20:59:00,
2013-05-24 15:00:00,73.1,39.9,29.81,East,90,2.5,3.6,30,0.00,,,0.00,WUHU216HW,2013-05-24 21:00:00,
2013-05-24 15:04:00,72.9,38.7,29.81,NNE,23,1.1,3.8,29,0.00,,,0.00,WUHU216HW,2013-05-24 21:04:00,
2013-05-24 15:05:00,72.9,38.7,29.81,WNW,293,1.1,3.8,29,0.00,,,0.00,WUHU216HW,2013-05-24 21:05:00,
2013-05-24 15:09:00,73.1,39.9,29.81,South,180,1.1,3.8,30,0.00,,,0.00,WUHU216HW,2013-05-24 21:09:00,
2013-05-24 15:10:00,73.3,39.0,29.81,NW,315,1.8,3.8,29,0.00,,,0.00,WUHU216HW,2013-05-24 21:10:00,
2013-05-24 15:14:00,73.6,41.0,29.81,WSW,248,0.4,2.5,31,0.00,,,0.00,WUHU216HW,2013-05-24 21:14:00,
2013-05-24 15:15:00,73.8,39.4,29.81,NNW,338,3.4,3.4,29,0.00,,,0.00,WUHU216HW,2013-05-24 21:15:00,
2013-05-24 15:19:00,73.8,37.5,29.81,NNE,23,1.3,3.4,27,0.00,,,0.00,WUHU216HW,2013-05-24 21:19:00,
2013-05-24 15:20:00,73.8,37.5,29.81,NNE,23,1.3,3.4,27,0.00,,,0.00,WUHU216HW,2013-05-24 21:20:00,
2013-05-24 15:24:00,73.4,39.2,29.80,NW,315,0.2,3.4,29,0.00,,,0.00,WUHU216HW,2013-05-24 21:24:00,
2013-05-24 15:25:00,73.4,39.2,29.80,NW,315,0.2,3.1,29,0.00,,,0.00,WUHU216HW,2013-05-24 21:25:00,
2013-05-24 15:30:00,74.0,42.1,29.80,SW,225,0.7,3.1,32,0.00,,,0.00,WUHU216HW,2013-05-24 21:30:00,
2013-05-24 15:31:00,74.2,42.3,29.81,WNW,293,1.1,3.1,32,0.00,,,0.00,WUHU216HW,2013-05-24 21:31:00,
2013-05-24 15:35:00,74.7,41.3,29.80,SSW,203,2.9,3.1,30,0.00,,,0.00,WUHU216HW,2013-05-24 21:35:00,
2013-05-24 15:36:00,74.9,41.4,29.80,WNW,293,2.9,2.9,30,0.00,,,0.00,WUHU216HW,2013-05-24 21:36:00,
2013-05-24 15:40:00,74.9,39.4,29.80,WSW,248,4.7,4.7,28,0.00,,,0.00,WUHU216HW,2013-05-24 21:40:00,
2013-05-24 15:41:00,74.9,40.4,29.80,SW,225,1.3,4.7,29,0.00,,,0.00,WUHU216HW,2013-05-24 21:41:00,
2013-05-24 15:45:00,74.9,41.4,29.80,ENE,68,0.7,4.7,30,0.00,,,0.00,WUHU216HW,2013-05-24 21:45:00,
2013-05-24 15:46:00,75.1,41.6,29.80,North,0,1.1,4.7,30,0.00,,,0.00,WUHU216HW,2013-05-24 21:46:00,
2013-05-24 15:50:00,75.2,40.8,29.80,NNW,338,1.8,5.4,29,0.00,,,0.00,WUHU216HW,2013-05-24 21:50:00,
2013-05-24 15:51:00,75.2,39.7,29.80,WNW,293,1.6,5.4,28,0.00,,,0.00,WUHU216HW,2013-05-24 21:51:00,
2013-05-24 15:55:00,75.2,40.8,29.80,ENE,68,1.1,5.4,29,0.00,,,0.00,WUHU216HW,2013-05-24 21:55:00,
2013-05-24 15:56:00,75.2,40.8,29.80,NNW,338,2.9,5.4,29,0.00,,,0.00,WUHU216HW,2013-05-24 21:56:00,
2013-05-24 16:00:00,75.2,38.7,29.80,North,0,1.1,4.0,27,0.00,,,0.00,WUHU216HW,2013-05-24 22:00:00,
2013-05-24 16:01:00,75.2,38.7,29.79,NE,45,1.1,4.0,27,0.00,,,0.00,WUHU216HW,2013-05-24 22:01:00,
2013-05-24 16:06:00,75.1,40.6,29.80,WSW,248,1.6,2.9,29,0.00,,,0.00,WUHU216HW,2013-05-24 22:06:00,
2013-05-24 16:07:00,75.1,41.6,29.80,SSW,203,1.1,2.0,30,0.00,,,0.00,WUHU216HW,2013-05-24 22:07:00,
2013-05-24 16:11:00,75.6,41.0,29.80,SSE,158,1.1,1.6,29,0.00,,,0.00,WUHU216HW,2013-05-24 22:11:00,
2013-05-24 16:12:00,75.6,41.0,29.80,SSE,158,1.1,1.6,29,0.00,,,0.00,WUHU216HW,2013-05-24 22:12:00,
2013-05-24 16:16:00,76.0,40.3,29.80,SSW,203,1.3,2.5,28,0.00,,,0.00,WUHU216HW,2013-05-24 22:16:00,
2013-05-24 16:17:00,76.0,40.3,29.80,SSW,203,1.3,2.5,28,0.00,,,0.00,WUHU216HW,2013-05-24 22:17:00,
2013-05-24 16:21:00,76.0,38.3,29.80,ENE,68,0.2,2.5,26,0.00,,,0.00,WUHU216HW,2013-05-24 22:21:00,
2013-05-24 16:22:00,76.0,38.3,29.80,ENE,68,0.2,2.5,26,0.00,,,0.00,WUHU216HW,2013-05-24 22:22:00,
2013-05-24 16:23:00,75.8,38.2,29.80,ESE,113,1.8,2.5,26,0.00,,,0.00,WUHU216HW,2013-05-24 22:23:00,
2013-05-24 16:26:00,75.6,39.0,29.80,WSW,248,0.7,3.4,27,0.00,,,0.00,WUHU216HW,2013-05-24 22:26:00,
2013-05-24 16:27:00,75.6,38.0,29.80,NE,45,2.7,3.4,26,0.00,,,0.00,WUHU216HW,2013-05-24 22:27:00,
2013-05-24 16:28:00,75.6,38.0,29.80,NE,45,2.7,3.4,26,0.00,,,0.00,WUHU216HW,2013-05-24 22:28:00,
2013-05-24 16:31:00,76.0,38.3,29.80,ESE,113,1.8,3.4,26,0.00,,,0.00,WUHU216HW,2013-05-24 22:31:00,
2013-05-24 16:33:00,76.0,38.3,29.80,SSE,158,0.9,3.4,26,0.00,,,0.00,WUHU216HW,2013-05-24 22:33:00,
2013-05-24 16:36:00,76.3,38.6,29.80,NNW,338,2.9,2.9,26,0.00,,,0.00,WUHU216HW,2013-05-24 22:36:00,
2013-05-24 16:38:00,76.3,38.6,29.80,ENE,68,0.7,2.9,26,0.00,,,0.00,WUHU216HW,2013-05-24 22:38:00,
2013-05-24 16:39:00,76.1,38.4,29.80,NNE,23,2.7,2.9,26,0.00,,,0.00,WUHU216HW,2013-05-24 22:39:00,
2013-05-24 16:42:00,76.1,38.4,29.80,ENE,68,2.5,2.9,26,0.00,,,0.00,WUHU216HW,2013-05-24 22:42:00,
2013-05-24 16:43:00,76.0,37.3,29.80,ENE,68,3.4,3.4,25,0.00,,,0.00,WUHU216HW,2013-05-24 22:43:00,
2013-05-24 16:44:00,76.0,35.2,29.80,NNE,23,4.5,4.5,23,0.00,,,0.00,WUHU216HW,2013-05-24 22:44:00,
2013-05-24 16:47:00,75.1,36.5,29.80,NNW,338,1.8,4.5,25,0.00,,,0.00,WUHU216HW,2013-05-24 22:47:00,
2013-05-24 16:48:00,75.1,36.5,29.80,ENE,68,2.5,4.5,25,0.00,,,0.00,WUHU216HW,2013-05-24 22:48:00,
2013-05-24 16:49:00,75.1,36.5,29.80,NE,45,1.8,4.5,25,0.00,,,0.00,WUHU216HW,2013-05-24 22:49:00,
2013-05-24 16:52:00,74.9,37.4,29.80,East,90,1.8,4.5,26,0.00,,,0.00,WUHU216HW,2013-05-24 22:52:00,
2013-05-24 16:53:00,74.9,37.4,29.80,ENE,68,0.9,4.5,26,0.00,,,0.00,WUHU216HW,2013-05-24 22:53:00,
2013-05-24 16:54:00,74.9,37.4,29.80,NNW,338,0.9,3.4,26,0.00,,,0.00,WUHU216HW,2013-05-24 22:54:00,
2013-05-24 16:57:00,74.9,36.4,29.80,NNW,338,2.2,3.4,25,0.00,,,0.00,WUHU216HW,2013-05-24 22:57:00,
2013-05-24 16:58:00,74.9,37.4,29.80,ENE,68,4.0,4.0,26,0.00,,,0.00,WUHU216HW,2013-05-24 22:58:00,
2013-05-24 16:59:00,74.9,37.4,29.80,NE,45,1.8,4.0,26,0.00,,,0.00,WUHU216HW,2013-05-24 22:59:00,
2013-05-24 17:02:00,74.9,37.4,29.80,WNW,293,2.5,4.3,26,0.00,,,0.00,WUHU216HW,2013-05-24 23:02:00,
2013-05-24 17:03:00,74.9,37.4,29.80,South,180,0.4,4.3,26,0.00,,,0.00,WUHU216HW,2013-05-24 23:03:00,
2013-05-24 17:04:00,74.9,37.4,29.80,NNW,338,2.5,4.3,26,0.00,,,0.00,WUHU216HW,2013-05-24 23:04:00,
2013-05-24 17:07:00,75.2,37.6,29.80,NW,315,1.1,4.3,26,0.00,,,0.00,WUHU216HW,2013-05-24 23:07:00,
2013-05-24 17:08:00,75.2,35.7,29.80,NE,45,2.7,4.3,24,0.00,,,0.00,WUHU216HW,2013-05-24 23:08:00,
2013-05-24 17:09:00,75.1,35.5,29.80,NE,45,2.2,4.3,24,0.00,,,0.00,WUHU216HW,2013-05-24 23:09:00,
2013-05-24 17:12:00,74.9,36.4,29.80,NNE,23,4.5,4.5,25,0.00,,,0.00,WUHU216HW,2013-05-24 23:12:00,
2013-05-24 17:14:00,74.5,35.0,29.80,SSW,203,2.5,4.5,24,0.00,,,0.00,WUHU216HW,2013-05-24 23:14:00,
2013-05-24 17:15:00,74.5,36.0,29.80,NNE,23,0.4,4.5,25,0.00,,,0.00,WUHU216HW,2013-05-24 23:15:00,
2013-05-24 17:17:00,74.5,36.0,29.80,NNE,23,2.2,4.5,25,0.00,,,0.00,WUHU216HW,2013-05-24 23:17:00,
2013-05-24 17:19:00,74.5,37.1,29.79,NNE,23,2.0,4.5,26,0.00,,,0.00,WUHU216HW,2013-05-24 23:19:00,
2013-05-24 17:20:00,74.5,37.1,29.79,NNE,23,2.0,4.5,26,0.00,,,0.00,WUHU216HW,2013-05-24 23:20:00,
2013-05-24 17:23:00,74.2,38.8,29.79,North,0,2.2,2.9,28,0.00,,,0.00,WUHU216HW,2013-05-24 23:23:00,
2013-05-24 17:24:00,74.2,35.7,29.79,East,90,3.1,3.1,25,0.00,,,0.00,WUHU216HW,2013-05-24 23:24:00,
2013-05-24 17:25:00,74.2,35.7,29.79,East,90,3.1,3.1,25,0.00,,,0.00,WUHU216HW,2013-05-24 23:25:00,
2013-05-24 17:28:00,74.2,36.7,29.79,NNE,23,4.0,4.0,26,0.00,,,0.00,WUHU216HW,2013-05-24 23:28:00,
2013-05-24 17:29:00,74.2,36.7,29.79,NE,45,1.6,4.0,26,0.00,,,0.00,WUHU216HW,2013-05-24 23:29:00,
2013-05-24 17:30:00,74.2,36.7,29.79,South,180,4.0,4.0,26,0.00,,,0.00,WUHU216HW,2013-05-24 23:30:00,
2013-05-24 17:33:00,74.5,39.1,29.79,SSE,158,5.4,5.4,28,0.00,,,0.00,WUHU216HW,2013-05-24 23:33:00,
2013-05-24 17:34:00,74.7,39.3,29.79,ESE,113,2.2,5.4,28,0.00,,,0.00,WUHU216HW,2013-05-24 23:34:00,
2013-05-24 17:35:00,74.9,39.4,29.79,South,180,0.9,5.4,28,0.00,,,0.00,WUHU216HW,2013-05-24 23:35:00,
2013-05-24 17:36:00,74.9,39.4,29.79,South,180,0.9,5.4,28,0.00,,,0.00,WUHU216HW,2013-05-24 23:36:00,
2013-05-24 17:38:00,75.2,40.8,29.79,East,90,1.8,5.4,29,0.00,,,0.00,WUHU216HW,2013-05-24 23:38:00,
2013-05-24 17:39:00,75.4,40.9,29.79,SSE,158,1.6,5.4,29,0.00,,,0.00,WUHU216HW,2013-05-24 23:39:00,
2013-05-24 17:40:00,75.4,40.9,29.79,SSE,158,1.6,5.4,29,0.00,,,0.00,WUHU216HW,2013-05-24 23:40:00,
2013-05-24 17:41:00,75.6,41.0,29.79,SSE,158,2.5,5.4,29,0.00,,,0.00,WUHU216HW,2013-05-24 23:41:00,
2013-05-24 17:44:00,75.6,41.0,29.79,ESE,113,1.3,2.5,29,0.00,,,0.00,WUHU216HW,2013-05-24 23:44:00,
2013-05-24 17:45:00,75.8,41.2,29.79,NNE,23,1.1,2.5,29,0.00,,,0.00,WUHU216HW,2013-05-24 23:45:00,
2013-05-24 17:46:00,75.6,40.1,29.79,SSW,203,0.4,2.5,28,0.00,,,0.00,WUHU216HW,2013-05-24 23:46:00,
2013-05-24 17:49:00,75.6,38.0,29.79,NE,45,1.6,3.4,26,0.00,,,0.00,WUHU216HW,2013-05-24 23:49:00,
2013-05-24 17:50:00,75.2,37.6,29.79,NE,45,2.2,3.4,26,0.00,,,0.00,WUHU216HW,2013-05-24 23:50:00,
2013-05-24 17:51:00,75.2,37.6,29.79,NE,45,2.2,3.4,26,0.00,,,0.00,WUHU216HW,2013-05-24 23:51:00,
2013-05-24 17:54:00,74.9,37.4,29.79,NE,45,0.7,3.4,26,0.00,,,0.00,WUHU216HW,2013-05-24 23:54:00,
2013-05-24 17:55:00,74.5,37.1,29.79,NNE,23,3.6,3.6,26,0.00,,,0.00,WUHU216HW,2013-05-24 23:55:00,
2013-05-24 17:56:00,74.5,37.1,29.79,NNE,23,3.6,3.6,26,0.00,,,0.00,WUHU216HW,2013-05-24 23:56:00,
2013-05-24 17:59:00,74.3,35.8,29.79,ESE,113,0.4,5.4,25,0.00,,,0.00,WUHU216HW,2013-05-24 23:59:00,
2013-05-24 18:01:00,74.3,36.9,29.79,ENE,68,2.0,5.4,26,0.00,,,0.00,WUHU216HW,2013-05-25 00:01:00,
2013-05-24 18:04:00,74.3,35.8,29.79,NE,45,5.4,5.4,25,0.00,,,0.00,WUHU216HW,2013-05-25 00:04:00,
2013-05-24 18:06:00,74.3,38.9,29.79,ENE,68,1.6,5.4,28,0.00,,,0.00,WUHU216HW,2013-05-25 00:06:00,
2013-05-24 18:07:00,74.3,38.9,29.79,East,90,2.2,5.4,28,0.00,,,0.00,WUHU216HW,2013-05-25 00:07:00,
2013-05-24 18:09:00,74.3,38.9,29.79,NE,45,1.8,5.4,28,0.00,,,0.00,WUHU216HW,2013-05-25 00:09:00,
2013-05-24 18:11:00,74.5,40.1,29.79,SSE,158,1.1,5.4,29,0.00,,,0.00,WUHU216HW,2013-05-25 00:11:00,
2013-05-24 18:12:00,74.7,40.2,29.79,SSE,158,1.1,5.4,29,0.00,,,0.00,WUHU216HW,2013-05-25 00:12:00,
2013-05-24 18:14:00,74.7,40.2,29.79,SSE,158,3.1,3.1,29,0.00,,,0.00,WUHU216HW,2013-05-25 00:14:00,
2013-05-24 18:16:00,74.9,40.4,29.79,SE,135,1.3,3.1,29,0.00,,,0.00,WUHU216HW,2013-05-25 00:16:00,
2013-05-24 18:17:00,75.2,40.8,29.79,East,90,0.9,3.1,29,0.00,,,0.00,WUHU216HW,2013-05-25 00:17:00,
2013-05-24 18:19:00,75.2,39.7,29.78,ESE,113,1.1,3.4,28,0.00,,,0.00,WUHU216HW,2013-05-25 00:19:00,
2013-05-24 18:21:00,75.2,37.6,29.79,NE,45,2.9,3.4,26,0.00,,,0.00,WUHU216HW,2013-05-25 00:21:00,
2013-05-24 18:22:00,75.1,36.5,29.79,ENE,68,1.1,3.4,25,0.00,,,0.00,WUHU216HW,2013-05-25 00:22:00,
2013-05-24 18:25:00,74.9,39.4,29.79,NNE,23,1.8,3.4,28,0.00,,,0.00,WUHU216HW,2013-05-25 00:25:00,
2013-05-24 18:26:00,74.7,39.3,29.79,North,0,1.1,3.4,28,0.00,,,0.00,WUHU216HW,2013-05-25 00:26:00,
2013-05-24 18:27:00,74.7,39.3,29.79,North,0,1.1,3.4,28,0.00,,,0.00,WUHU216HW,2013-05-25 00:27:00,
2013-05-24 18:30:00,74.9,40.4,29.79,East,90,0.7,2.9,29,0.00,,,0.00,WUHU216HW,2013-05-25 00:30:00,
2013-05-24 18:31:00,74.9,41.4,29.78,ENE,68,0.7,2.7,30,0.00,,,0.00,WUHU216HW,2013-05-25 00:31:00,
2013-05-24 18:32:00,74.9,41.4,29.78,ENE,68,0.7,2.7,30,0.00,,,0.00,WUHU216HW,2013-05-25 00:32:00,
2013-05-24 18:33:00,74.9,40.4,29.78,ESE,113,0.4,2.7,29,0.00,,,0.00,WUHU216HW,2013-05-25 00:33:00,
2013-05-24 18:35:00,75.1,40.6,29.78,SSE,158,2.2,2.7,29,0.00,,,0.00,WUHU216HW,2013-05-25 00:35:00,
2013-05-24 18:36:00,75.1,40.6,29.78,East,90,0.9,2.7,29,0.00,,,0.00,WUHU216HW,2013-05-25 00:36:00,
2013-05-24 18:37:00,75.1,40.6,29.78,East,90,0.9,2.7,29,0.00,,,0.00,WUHU216HW,2013-05-25 00:37:00,
2013-05-24 18:38:00,75.2,40.8,29.78,SE,135,0.7,2.7,29,0.00,,,0.00,WUHU216HW,2013-05-25 00:38:00,
2013-05-24 18:40:00,75.4,39.9,29.78,NE,45,1.8,2.2,28,0.00,,,0.00,WUHU216HW,2013-05-25 00:40:00,
2013-05-24 18:41:00,75.2,37.6,29.78,NE,45,3.8,3.8,26,0.00,,,0.00,WUHU216HW,2013-05-25 00:41:00,
2013-05-24 18:42:00,75.1,37.5,29.79,ENE,68,4.0,4.0,26,0.00,,,0.00,WUHU216HW,2013-05-25 00:42:00,
2013-05-24 18:43:00,74.9,37.4,29.78,NE,45,2.2,4.0,26,0.00,,,0.00,WUHU216HW,2013-05-25 00:43:00,
2013-05-24 18:45:00,74.5,39.1,29.78,SE,135,1.8,4.0,28,0.00,,,0.00,WUHU216HW,2013-05-25 00:45:00,
2013-05-24 18:46:00,74.5,40.1,29.79,ENE,68,1.1,4.0,29,0.00,,,0.00,WUHU216HW,2013-05-25 00:46:00,
2013-05-24 18:47:00,74.5,40.1,29.79,SE,135,0.9,4.0,29,0.00,,,0.00,WUHU216HW,2013-05-25 00:47:00,
2013-05-24 18:48:00,74.3,41.0,29.78,ESE,113,0.7,4.0,30,0.00,,,0.00,WUHU216HW,2013-05-25 00:48:00,
2013-05-24 18:50:00,74.5,40.1,29.78,SE,135,0.7,4.0,29,0.00,,,0.00,WUHU216HW,2013-05-25 00:50:00,
2013-05-24 18:52:00,74.3,40.0,29.78,East,90,0.4,4.0,29,0.00,,,0.00,WUHU216HW,2013-05-25 00:52:00,
2013-05-24 18:53:00,74.3,40.0,29.78,SSE,158,1.1,3.8,29,0.00,,,0.00,WUHU216HW,2013-05-25 00:53:00,
2013-05-24 18:56:00,74.5,41.1,29.78,SE,135,1.3,3.8,30,0.00,,,0.00,WUHU216HW,2013-05-25 00:56:00,
2013-05-24 18:57:00,74.5,41.1,29.78,SW,225,0.9,3.8,30,0.00,,,0.00,WUHU216HW,2013-05-25 00:57:00,
2013-05-24 18:58:00,74.5,41.1,29.78,East,90,2.2,3.8,30,0.00,,,0.00,WUHU216HW,2013-05-25 00:58:00,
2013-05-24 19:01:00,74.5,40.1,29.78,NNE,23,1.1,2.9,29,0.00,,,0.00,WUHU216HW,2013-05-25 01:01:00,
2013-05-24 19:02:00,74.5,40.1,29.78,East,90,0.9,2.9,29,0.00,,,0.00,WUHU216HW,2013-05-25 01:02:00,
2013-05-24 19:03:00,74.5,40.1,29.78,East,90,1.1,2.9,29,0.00,,,0.00,WUHU216HW,2013-05-25 01:03:00,
2013-05-24 19:04:00,74.2,40.8,29.78,ENE,68,2.0,2.9,30,0.00,,,0.00,WUHU216HW,2013-05-25 01:04:00,
2013-05-24 19:06:00,74.0,40.6,29.79,East,90,2.0,2.9,30,0.00,,,0.00,WUHU216HW,2013-05-25 01:06:00,
2013-05-24 19:07:00,73.8,40.5,29.78,South,180,1.1,2.9,30,0.00,,,0.00,WUHU216HW,2013-05-25 01:07:00,
2013-05-24 19:08:00,73.8,40.5,29.78,NNE,23,1.1,2.9,30,0.00,,,0.00,WUHU216HW,2013-05-25 01:08:00,
2013-05-24 19:10:00,73.6,40.3,29.78,SSE,158,1.1,2.0,30,0.00,,,0.00,WUHU216HW,2013-05-25 01:10:00,
2013-05-24 19:11:00,73.6,40.3,29.79,NE,45,1.6,2.0,30,0.00,,,0.00,WUHU216HW,2013-05-25 01:11:00,
2013-05-24 19:13:00,73.4,40.1,29.78,SSE,158,1.6,2.0,30,0.00,,,0.00,WUHU216HW,2013-05-25 01:13:00,
2013-05-24 19:15:00,73.3,40.0,29.79,ENE,68,2.9,2.9,30,0.00,,,0.00,WUHU216HW,2013-05-25 01:15:00,
2013-05-24 19:16:00,73.3,40.0,29.78,East,90,2.7,2.9,30,0.00,,,0.00,WUHU216HW,2013-05-25 01:16:00,
2013-05-24 19:18:00,73.3,40.0,29.79,East,90,1.8,2.9,30,0.00,,,0.00,WUHU216HW,2013-05-25 01:18:00,
2013-05-24 19:20:00,73.1,39.9,29.79,SE,135,1.1,2.9,30,0.00,,,0.00,WUHU216HW,2013-05-25 01:20:00,
2013-05-24 19:21:00,73.1,39.9,29.79,East,90,2.7,2.9,30,0.00,,,0.00,WUHU216HW,2013-05-25 01:21:00,
2013-05-24 19:23:00,72.9,39.7,29.79,ESE,113,0.9,2.9,30,0.00,,,0.00,WUHU216HW,2013-05-25 01:23:00,
2013-05-24 19:25:00,72.9,40.5,29.79,SE,135,1.8,2.7,31,0.00,,,0.00,WUHU216HW,2013-05-25 01:25:00,
2013-05-24 19:27:00,72.7,39.6,29.79,NE,45,1.8,2.7,30,0.00,,,0.00,WUHU216HW,2013-05-25 01:27:00,
2013-05-24 19:28:00,72.7,39.6,29.79,NNW,338,1.1,2.7,30,0.00,,,0.00,WUHU216HW,2013-05-25 01:28:00,
2013-05-24 19:30:00,72.7,39.6,29.79,SE,135,1.8,4.7,30,0.00,,,0.00,WUHU216HW,2013-05-25 01:30:00,
2013-05-24 19:32:00,72.5,39.4,29.79,ESE,113,0.4,4.7,30,0.00,,,0.00,WUHU216HW,2013-05-25 01:32:00,
2013-05-24 19:33:00,72.5,39.4,29.79,ESE,113,1.1,4.7,30,0.00,,,0.00,WUHU216HW,2013-05-25 01:33:00,
2013-05-24 19:35:00,72.4,38.3,29.79,East,90,1.6,4.7,29,0.00,,,0.00,WUHU216HW,2013-05-25 01:35:00,
2013-05-24 19:37:00,72.4,39.2,29.79,SE,135,0.9,4.7,30,0.00,,,0.00,WUHU216HW,2013-05-25 01:37:00,
2013-05-24 19:38:00,72.4,39.2,29.79,North,0,1.3,3.1,30,0.00,,,0.00,WUHU216HW,2013-05-25 01:38:00,
2013-05-24 19:39:00,72.4,39.2,29.79,North,0,1.3,3.1,30,0.00,,,0.00,WUHU216HW,2013-05-25 01:39:00,
2013-05-24 19:40:00,72.4,39.2,29.79,South,180,2.5,3.1,30,0.00,,,0.00,WUHU216HW,2013-05-25 01:40:00,
2013-05-24 19:42:00,72.2,39.9,29.79,SW,225,3.1,3.1,31,0.00,,,0.00,WUHU216HW,2013-05-25 01:42:00,
2013-05-24 19:43:00,72.2,39.9,29.79,SW,225,3.1,3.1,31,0.00,,,0.00,WUHU216HW,2013-05-25 01:43:00,
2013-05-24 19:44:00,72.0,39.0,29.79,SE,135,0.4,3.1,30,0.00,,,0.00,WUHU216HW,2013-05-25 01:44:00,
2013-05-24 19:45:00,72.0,39.0,29.79,SE,135,1.6,3.1,30,0.00,,,0.00,WUHU216HW,2013-05-25 01:45:00,
2013-05-24 19:47:00,71.6,38.7,29.79,East,90,0.9,3.1,30,0.00,,,0.00,WUHU216HW,2013-05-25 01:47:00,
2013-05-24 19:48:00,71.6,38.7,29.79,East,90,0.9,3.1,30,0.00,,,0.00,WUHU216HW,2013-05-25 01:48:00,
2013-05-24 19:49:00,71.5,39.2,29.79,ESE,113,1.8,3.1,31,0.00,,,0.00,WUHU216HW,2013-05-25 01:49:00,
2013-05-24 19:50:00,71.5,39.2,29.79,ESE,113,0.4,3.1,31,0.00,,,0.00,WUHU216HW,2013-05-25 01:50:00,
2013-05-24 19:52:00,71.1,39.0,29.79,SE,135,0.7,1.8,31,0.00,,,0.00,WUHU216HW,2013-05-25 01:52:00,
2013-05-24 19:53:00,70.9,38.8,29.79,East,90,0.7,1.8,31,0.00,,,0.00,WUHU216HW,2013-05-25 01:53:00,
2013-05-24 19:54:00,70.9,38.8,29.79,ESE,113,0.0,1.8,31,0.00,,,0.00,WUHU216HW,2013-05-25 01:54:00,
2013-05-24 19:55:00,70.9,38.8,29.79,East,90,0.7,1.8,31,0.00,,,0.00,WUHU216HW,2013-05-25 01:55:00,
2013-05-24 19:57:00,70.6,38.4,29.79,SSE,158,0.2,1.8,31,0.00,,,0.00,WUHU216HW,2013-05-25 01:57:00,
2013-05-24 19:58:00,70.6,38.4,29.79,ESE,113,0.2,1.8,31,0.00,,,0.00,WUHU216HW,2013-05-25 01:58:00,
2013-05-24 19:59:00,70.6,38.4,29.79,ESE,113,0.2,1.8,31,0.00,,,0.00,WUHU216HW,2013-05-25 01:59:00,
2013-05-24 20:00:00,70.4,38.4,29.79,ENE,68,0.9,1.1,31,0.00,,,0.00,WUHU216HW,2013-05-25 02:00:00,
2013-05-24 20:02:00,70.0,38.0,29.79,ENE,68,0.4,1.1,31,0.00,,,0.00,WUHU216HW,2013-05-25 02:02:00,
2013-05-24 20:03:00,69.8,38.5,29.79,ENE,68,0.0,1.1,32,0.00,,,0.00,WUHU216HW,2013-05-25 02:03:00,
2013-05-24 20:04:00,69.7,38.4,29.79,ENE,68,0.0,1.1,32,0.00,,,0.00,WUHU216HW,2013-05-25 02:04:00,
2013-05-24 20:05:00,69.7,38.4,29.79,South,180,0.4,1.1,32,0.00,,,0.00,WUHU216HW,2013-05-25 02:05:00,
2013-05-24 20:08:00,69.3,38.1,29.79,ESE,113,0.2,1.1,32,0.00,,,0.00,WUHU216HW,2013-05-25 02:08:00,
2013-05-24 20:09:00,69.3,38.8,29.79,ENE,68,1.8,1.8,33,0.00,,,0.00,WUHU216HW,2013-05-25 02:09:00,
2013-05-24 20:10:00,69.1,38.6,29.79,ESE,113,2.0,2.0,33,0.00,,,0.00,WUHU216HW,2013-05-25 02:10:00,
2013-05-24 20:13:00,68.8,38.4,29.79,SE,135,0.4,2.5,33,0.00,,,0.00,WUHU216HW,2013-05-25 02:13:00,
2013-05-24 20:14:00,68.8,38.4,29.80,SE,135,0.4,2.5,33,0.00,,,0.00,WUHU216HW,2013-05-25 02:14:00,
2013-05-24 20:15:00,68.6,38.2,29.80,SE,135,0.0,2.5,33,0.00,,,0.00,WUHU216HW,2013-05-25 02:15:00,
2013-05-24 20:16:00,68.4,38.0,29.80,ENE,68,0.7,2.5,33,0.00,,,0.00,WUHU216HW,2013-05-25 02:16:00,
2013-05-24 20:18:00,68.2,37.8,29.80,NE,45,0.4,2.5,33,0.00,,,0.00,WUHU216HW,2013-05-25 02:18:00,
2013-05-24 20:19:00,68.0,38.4,29.80,NE,45,0.0,2.5,34,0.00,,,0.00,WUHU216HW,2013-05-25 02:19:00,
2013-05-24 20:20:00,68.0,38.4,29.80,NE,45,0.0,2.5,34,0.00,,,0.00,WUHU216HW,2013-05-25 02:20:00,
2013-05-24 20:22:00,68.0,37.7,29.80,NE,45,0.0,2.5,33,0.00,,,0.00,WUHU216HW,2013-05-25 02:22:00,
2013-05-24 20:23:00,67.7,37.4,29.80,East,90,0.4,0.7,33,0.00,,,0.00,WUHU216HW,2013-05-25 02:23:00,
2013-05-24 20:24:00,67.7,38.1,29.80,NE,45,0.7,0.7,34,0.00,,,0.00,WUHU216HW,2013-05-25 02:24:00,
2013-05-24 20:25:00,67.7,38.1,29.80,NE,45,0.7,0.7,34,0.00,,,0.00,WUHU216HW,2013-05-25 02:25:00,
2013-05-24 20:27:00,67.3,37.8,29.80,NE,45,0.4,0.7,34,0.00,,,0.00,WUHU216HW,2013-05-25 02:27:00,
2013-05-24 20:28:00,67.3,37.8,29.80,East,90,0.4,0.7,34,0.00,,,0.00,WUHU216HW,2013-05-25 02:28:00,
2013-05-24 20:29:00,67.3,37.8,29.80,East,90,0.2,0.7,34,0.00,,,0.00,WUHU216HW,2013-05-25 02:29:00,
2013-05-24 20:30:00,67.3,37.8,29.80,East,90,0.2,0.7,34,0.00,,,0.00,WUHU216HW,2013-05-25 02:30:00,
2013-05-24 20:33:00,67.0,37.5,29.80,ENE,68,0.4,0.7,34,0.00,,,0.00,WUHU216HW,2013-05-25 02:33:00,
2013-05-24 20:34:00,66.8,37.4,29.80,ENE,68,0.0,0.4,34,0.00,,,0.00,WUHU216HW,2013-05-25 02:34:00,
2013-05-24 20:35:00,66.6,37.2,29.80,ENE,68,0.2,0.4,34,0.00,,,0.00,WUHU216HW,2013-05-25 02:35:00,
2013-05-24 20:36:00,66.6,37.2,29.80,ENE,68,0.0,0.4,34,0.00,,,0.00,WUHU216HW,2013-05-25 02:36:00,
2013-05-24 20:38:00,66.4,37.1,29.80,ENE,68,0.0,0.4,34,0.00,,,0.00,WUHU216HW,2013-05-25 02:38:00,
2013-05-24 20:39:00,66.4,37.1,29.80,ENE,68,0.0,0.4,34,0.00,,,0.00,WUHU216HW,2013-05-25 02:39:00,
2013-05-24 20:40:00,66.2,36.9,29.80,ENE,68,0.0,0.4,34,0.00,,,0.00,WUHU216HW,2013-05-25 02:40:00,
2013-05-24 20:41:00,66.2,37.6,29.80,ENE,68,0.0,0.4,35,0.00,,,0.00,WUHU216HW,2013-05-25 02:41:00,
2013-05-24 20:43:00,66.2,37.6,29.80,ENE,68,0.0,0.2,35,0.00,,,0.00,WUHU216HW,2013-05-25 02:43:00,
2013-05-24 20:44:00,66.2,37.6,29.80,ENE,68,0.0,0.2,35,0.00,,,0.00,WUHU216HW,2013-05-25 02:44:00,
2013-05-24 20:45:00,66.2,37.6,29.80,ENE,68,0.0,0.2,35,0.00,,,0.00,WUHU216HW,2013-05-25 02:45:00,
2013-05-24 20:46:00,66.2,37.6,29.80,ENE,68,0.0,0.0,35,0.00,,,0.00,WUHU216HW,2013-05-25 02:46:00,
2013-05-24 20:49:00,66.2,37.6,29.80,ENE,68,0.0,0.0,35,0.00,,,0.00,WUHU216HW,2013-05-25 02:49:00,
2013-05-24 20:50:00,66.2,37.6,29.80,ENE,68,0.0,0.0,35,0.00,,,0.00,WUHU216HW,2013-05-25 02:50:00,
2013-05-24 21:00:00,64.3,36.5,29.81,ESE,113,0.7,0.7,36,0.00,,,0.00,WUHU216HW,2013-05-25 03:00:00,
2013-05-24 21:05:00,63.9,36.3,29.80,NE,45,0.0,1.1,36,0.00,,,0.00,WUHU216HW,2013-05-25 03:05:00,
2013-05-24 21:10:00,63.5,36.6,29.81,ESE,113,0.0,1.1,37,0.00,,,0.00,WUHU216HW,2013-05-25 03:10:00,
2013-05-24 21:15:00,63.2,36.3,29.81,SSW,203,0.0,0.9,37,0.00,,,0.00,WUHU216HW,2013-05-25 03:15:00,
2013-05-24 21:16:00,63.2,36.3,29.81,SSW,203,0.0,0.9,37,0.00,,,0.00,WUHU216HW,2013-05-25 03:16:00,
2013-05-24 21:20:00,63.0,36.2,29.81,SSE,158,1.3,2.5,37,0.00,,,0.00,WUHU216HW,2013-05-25 03:20:00,
2013-05-24 21:21:00,63.0,36.2,29.81,SSE,158,1.3,2.5,37,0.00,,,0.00,WUHU216HW,2013-05-25 03:21:00,
2013-05-24 21:25:00,62.8,36.0,29.81,SSW,203,0.4,2.5,37,0.00,,,0.00,WUHU216HW,2013-05-25 03:25:00,
2013-05-24 21:26:00,62.8,36.0,29.81,SSW,203,0.4,2.5,37,0.00,,,0.00,WUHU216HW,2013-05-25 03:26:00,
2013-05-24 21:30:00,62.5,36.4,29.81,SSE,158,0.2,1.6,38,0.00,,,0.00,WUHU216HW,2013-05-25 03:30:00,
2013-05-24 21:31:00,62.5,36.4,29.81,SSE,158,0.2,1.6,38,0.00,,,0.00,WUHU216HW,2013-05-25 03:31:00,
2013-05-24 21:35:00,62.3,35.5,29.82,South,180,0.0,1.6,37,0.00,,,0.00,WUHU216HW,2013-05-25 03:35:00,
2013-05-24 21:36:00,62.3,35.5,29.82,South,180,0.0,1.6,37,0.00,,,0.00,WUHU216HW,2013-05-25 03:36:00,
2013-05-24 21:40:00,62.1,35.4,29.82,South,180,0.9,1.6,37,0.00,,,0.00,WUHU216HW,2013-05-25 03:40:00,
2013-05-24 21:41:00,61.9,35.2,29.82,ESE,113,0.0,1.3,37,0.00,,,0.00,WUHU216HW,2013-05-25 03:41:00,
2013-05-24 21:42:00,61.9,35.2,29.82,ESE,113,0.0,1.3,37,0.00,,,0.00,WUHU216HW,2013-05-25 03:42:00,
2013-05-24 21:46:00,61.7,35.7,29.82,North,0,0.2,1.1,38,0.00,,,0.00,WUHU216HW,2013-05-25 03:46:00,
2013-05-24 21:47:00,61.6,35.6,29.82,North,0,0.0,1.1,38,0.00,,,0.00,WUHU216HW,2013-05-25 03:47:00,
2013-05-24 21:51:00,61.6,36.3,29.83,North,0,0.4,1.1,39,0.00,,,0.00,WUHU216HW,2013-05-25 03:51:00,
2013-05-24 21:52:00,61.4,36.1,29.82,North,0,0.0,1.1,39,0.00,,,0.00,WUHU216HW,2013-05-25 03:52:00,
2013-05-24 21:56:00,61.0,36.6,29.83,North,0,0.0,0.4,40,0.00,,,0.00,WUHU216HW,2013-05-25 03:56:00,
2013-05-24 21:57:00,60.8,36.4,29.83,North,0,0.0,0.4,40,0.00,,,0.00,WUHU216HW,2013-05-25 03:57:00,
2013-05-24 22:01:00,60.5,36.6,29.83,ESE,113,0.2,1.1,41,0.00,,,0.00,WUHU216HW,2013-05-25 04:01:00,
2013-05-24 22:06:00,60.1,36.9,29.83,SSW,203,0.0,1.1,42,0.00,,,0.00,WUHU216HW,2013-05-25 04:06:00,
2013-05-24 22:11:00,59.9,37.3,29.83,NW,315,0.2,0.7,43,0.00,,,0.00,WUHU216HW,2013-05-25 04:11:00,
2013-05-24 22:16:00,59.6,37.0,29.83,North,0,0.4,0.7,43,0.00,,,0.00,WUHU216HW,2013-05-25 04:16:00,
2013-05-24 22:21:00,59.2,37.2,29.83,NW,315,0.4,1.3,44,0.00,,,0.00,WUHU216HW,2013-05-25 04:21:00,
2013-05-24 22:22:00,59.2,37.2,29.83,NW,315,0.4,1.3,44,0.00,,,0.00,WUHU216HW,2013-05-25 04:22:00,
2013-05-24 22:26:00,58.9,36.9,29.83,North,0,0.4,1.3,44,0.00,,,0.00,WUHU216HW,2013-05-25 04:26:00,
2013-05-24 22:27:00,58.9,37.4,29.83,NW,315,0.4,1.3,45,0.00,,,0.00,WUHU216HW,2013-05-25 04:27:00,
2013-05-24 22:31:00,58.7,37.3,29.83,WSW,248,0.0,1.1,45,0.00,,,0.00,WUHU216HW,2013-05-25 04:31:00,
2013-05-24 22:32:00,58.7,37.3,29.83,WSW,248,0.0,1.1,45,0.00,,,0.00,WUHU216HW,2013-05-25 04:32:00,
2013-05-24 22:33:00,58.7,37.3,29.83,WSW,248,0.0,1.1,45,0.00,,,0.00,WUHU216HW,2013-05-25 04:33:00,
2013-05-24 22:36:00,58.7,37.9,29.83,SE,135,1.1,1.1,46,0.00,,,0.00,WUHU216HW,2013-05-25 04:36:00,
2013-05-24 22:37:00,58.7,37.9,29.83,SE,135,1.1,1.1,46,0.00,,,0.00,WUHU216HW,2013-05-25 04:37:00,
2013-05-24 22:38:00,58.5,37.7,29.83,SSE,158,0.2,1.1,46,0.00,,,0.00,WUHU216HW,2013-05-25 04:38:00,
2013-05-24 22:42:00,58.1,37.4,29.83,SE,135,0.2,1.1,46,0.00,,,0.00,WUHU216HW,2013-05-25 04:42:00,
2013-05-24 22:43:00,58.0,37.3,29.83,NE,45,1.8,1.8,46,0.00,,,0.00,WUHU216HW,2013-05-25 04:43:00,
2013-05-24 22:47:00,57.8,37.6,29.83,NE,45,0.0,1.8,47,0.00,,,0.00,WUHU216HW,2013-05-25 04:47:00,
2013-05-24 22:48:00,57.6,37.4,29.83,NE,45,0.0,1.8,47,0.00,,,0.00,WUHU216HW,2013-05-25 04:48:00,
2013-05-24 22:49:00,57.6,37.4,29.83,NE,45,0.0,1.8,47,0.00,,,0.00,WUHU216HW,2013-05-25 04:49:00,
2013-05-24 22:52:00,57.6,37.4,29.83,NE,45,0.0,1.8,47,0.00,,,0.00,WUHU216HW,2013-05-25 04:52:00,
2013-05-24 22:53:00,57.4,37.9,29.83,ENE,68,0.0,0.9,48,0.00,,,0.00,WUHU216HW,2013-05-25 04:53:00,
2013-05-24 22:54:00,57.4,37.9,29.83,ENE,68,0.0,0.4,48,0.00,,,0.00,WUHU216HW,2013-05-25 04:54:00,
2013-05-24 22:57:00,57.2,37.7,29.83,ENE,68,0.0,0.2,48,0.00,,,0.00,WUHU216HW,2013-05-25 04:57:00,
2013-05-24 22:58:00,57.2,37.7,29.83,ENE,68,0.9,0.9,48,0.00,,,0.00,WUHU216HW,2013-05-25 04:58:00,
2013-05-24 22:59:00,57.2,38.4,29.83,ENE,68,0.0,0.9,49,0.00,,,0.00,WUHU216HW,2013-05-25 04:59:00,
2013-05-24 23:02:00,56.9,38.0,29.83,NE,45,1.1,1.1,49,0.00,,,0.00,WUHU216HW,2013-05-25 05:02:00,
2013-05-24 23:03:00,56.9,38.0,29.83,NE,45,1.1,1.1,49,0.00,,,0.00,WUHU216HW,2013-05-25 05:03:00,
2013-05-24 23:04:00,56.9,38.0,29.83,ENE,68,1.1,1.1,49,0.00,,,0.00,WUHU216HW,2013-05-25 05:04:00,
2013-05-24 23:07:00,56.7,38.3,29.83,NE,45,2.5,2.5,50,0.00,,,0.00,WUHU216HW,2013-05-25 05:07:00,
2013-05-24 23:09:00,56.5,38.2,29.83,ESE,113,0.7,2.5,50,0.00,,,0.00,WUHU216HW,2013-05-25 05:09:00,
2013-05-24 23:12:00,56.5,38.2,29.83,East,90,0.4,2.5,50,0.00,,,0.00,WUHU216HW,2013-05-25 05:12:00,
2013-05-24 23:14:00,56.5,38.2,29.83,East,90,0.0,2.5,50,0.00,,,0.00,WUHU216HW,2013-05-25 05:14:00,
2013-05-24 23:18:00,56.3,38.0,29.83,East,90,0.0,0.7,50,0.00,,,0.00,WUHU216HW,2013-05-25 05:18:00,
2013-05-24 23:19:00,56.3,38.0,29.83,East,90,0.0,0.7,50,0.00,,,0.00,WUHU216HW,2013-05-25 05:19:00,
2013-05-24 23:20:00,56.3,38.0,29.83,East,90,0.0,0.7,50,0.00,,,0.00,WUHU216HW,2013-05-25 05:20:00,
2013-05-24 23:23:00,56.2,37.8,29.83,East,90,0.0,0.0,50,0.00,,,0.00,WUHU216HW,2013-05-25 05:23:00,
2013-05-24 23:24:00,56.2,37.8,29.83,ENE,68,0.4,0.4,50,0.00,,,0.00,WUHU216HW,2013-05-25 05:24:00,
2013-05-24 23:25:00,56.0,37.6,29.83,ENE,68,0.4,0.4,50,0.00,,,0.00,WUHU216HW,2013-05-25 05:25:00,
2013-05-24 23:28:00,55.8,37.4,29.83,ENE,68,0.2,0.4,50,0.00,,,0.00,WUHU216HW,2013-05-25 05:28:00,
2013-05-24 23:29:00,55.8,37.4,29.83,ENE,68,0.0,0.4,50,0.00,,,0.00,WUHU216HW,2013-05-25 05:29:00,
2013-05-24 23:30:00,55.8,37.4,29.83,NE,45,0.4,0.4,50,0.00,,,0.00,WUHU216HW,2013-05-25 05:30:00,
2013-05-24 23:33:00,55.6,37.3,29.83,West,270,0.4,0.4,50,0.00,,,0.00,WUHU216HW,2013-05-25 05:33:00,
2013-05-24 23:34:00,55.6,37.3,29.83,WSW,248,0.4,0.4,50,0.00,,,0.00,WUHU216HW,2013-05-25 05:34:00,
2013-05-24 23:35:00,55.4,37.1,29.83,WSW,248,0.0,0.4,50,0.00,,,0.00,WUHU216HW,2013-05-25 05:35:00,
2013-05-24 23:38:00,55.3,37.4,29.83,NE,45,1.1,1.1,51,0.00,,,0.00,WUHU216HW,2013-05-25 05:38:00,
2013-05-24 23:39:00,55.3,37.9,29.83,East,90,1.8,1.8,52,0.00,,,0.00,WUHU216HW,2013-05-25 05:39:00,
2013-05-24 23:40:00,55.3,37.9,29.83,East,90,1.8,1.8,52,0.00,,,0.00,WUHU216HW,2013-05-25 05:40:00,
2013-05-24 23:44:00,55.1,37.7,29.83,SE,135,1.1,3.4,52,0.00,,,0.00,WUHU216HW,2013-05-25 05:44:00,
2013-05-24 23:45:00,55.1,37.7,29.83,SE,135,1.1,3.4,52,0.00,,,0.00,WUHU216HW,2013-05-25 05:45:00,
2013-05-24 23:49:00,54.9,37.5,29.83,East,90,0.9,3.4,52,0.00,,,0.00,WUHU216HW,2013-05-25 05:49:00,
2013-05-24 23:50:00,54.9,37.5,29.83,East,90,0.9,3.4,52,0.00,,,0.00,WUHU216HW,2013-05-25 05:50:00,
2013-05-24 23:54:00,54.9,37.5,29.82,SE,135,1.1,1.3,52,0.00,,,0.00,WUHU216HW,2013-05-25 05:54:00,
2013-05-24 23:55:00,54.9,37.5,29.83,SW,225,1.6,1.6,52,0.00,,,0.00,WUHU216HW,2013-05-25 05:55:00,
2013-05-24 23:56:00,54.9,37.5,29.83,SW,225,1.6,1.6,52,0.00,,,0.00,WUHU216HW,2013-05-25 05:56:00,
2013-05-24 23:59:00,54.7,37.8,29.82,ENE,68,1.1,1.6,53,0.00,,,0.00,WUHU216HW,2013-05-25 05:59:00,